AFR027 KLAX-LFPG

Flight info

Callsign AFR027
Flight time 9h 54m
Altitude 37000
Route ORCKA5 LAS DCT BCE DCT KD57Q DCT KD72U DCT KP03A DCT GABOV DCT 55N086W/N0482F390 DCT GOSEP DCT FEDDY DCT IKMAN/M084F390 DCT KETLA DCT 62N050W 6130N04000W 60N030W 58N020W DCT SUNOT/N0485F390 DCT KESIX DCT APSOV DCT MAKUX DCT SOSIM L15 KEPAD L151 MID/N0469F290 Y803 SFD UM605 BIBAX
Aircraft A359/H-SDE2E3GHIJ3J4J5LM1ORWXY/LB1D1

Departure

Time 2026-04-26 04:29
Airport Los Angeles International Airport (KLAX)

Arrival

Time 2026-04-26 14:23
Airport Charles de Gaulle International Airport (LFPG)
Time Latitude Longitude Altitude Speed Heading
2026-04-26 03:06 33.94350 -118.41573 100 ft 0 kts 83°
2026-04-26 04:13 33.94349 -118.41580 99 ft 4 kts 83°
2026-04-26 04:13 33.94346 -118.41612 99 ft 4 kts 83°
2026-04-26 04:13 33.94343 -118.41638 99 ft 3 kts 82°
2026-04-26 04:14 33.94335 -118.41665 98 ft 4 kts 32°
2026-04-26 04:14 33.94313 -118.41670 96 ft 4 kts 353°
2026-04-26 04:14 33.94287 -118.41666 99 ft 2 kts 353°
2026-04-26 04:14 33.94285 -118.41666 98 ft 0 kts 353°
2026-04-26 04:20 33.94296 -118.41668 99 ft 4 kts 353°
2026-04-26 04:20 33.94337 -118.41677 97 ft 6 kts 335°
2026-04-26 04:20 33.94353 -118.41720 100 ft 7 kts 276°
2026-04-26 04:20 33.94319 -118.41765 102 ft 10 kts 192°
2026-04-26 04:21 33.94221 -118.41757 100 ft 19 kts 172°
2026-04-26 04:21 33.94084 -118.41736 101 ft 20 kts 173°
2026-04-26 04:21 33.93951 -118.41717 101 ft 19 kts 173°
2026-04-26 04:21 33.93823 -118.41698 102 ft 18 kts 173°
2026-04-26 04:22 33.93723 -118.41659 104 ft 13 kts 124°
2026-04-26 04:22 33.93721 -118.41540 104 ft 17 kts 83°
2026-04-26 04:22 33.93738 -118.41382 102 ft 21 kts 83°
2026-04-26 04:22 33.93758 -118.41189 100 ft 25 kts 83°
2026-04-26 04:23 33.93780 -118.40967 101 ft 27 kts 83°
2026-04-26 04:23 33.93803 -118.40745 102 ft 26 kts 83°
2026-04-26 04:23 33.93824 -118.40533 104 ft 25 kts 83°
2026-04-26 04:23 33.93845 -118.40331 103 ft 24 kts 83°
2026-04-26 04:24 33.93865 -118.40137 105 ft 24 kts 83°
2026-04-26 04:24 33.93885 -118.39933 105 ft 26 kts 83°
2026-04-26 04:24 33.93908 -118.39705 101 ft 28 kts 83°
2026-04-26 04:24 33.93932 -118.39480 101 ft 27 kts 83°
2026-04-26 04:25 33.93954 -118.39261 103 ft 26 kts 83°
2026-04-26 04:25 33.93976 -118.39051 102 ft 24 kts 83°
2026-04-26 04:25 33.93996 -118.38851 101 ft 24 kts 83°
2026-04-26 04:25 33.94018 -118.38643 103 ft 26 kts 83°
2026-04-26 04:26 33.94039 -118.38432 104 ft 25 kts 83°
2026-04-26 04:26 33.94060 -118.38233 101 ft 24 kts 83°
2026-04-26 04:26 33.94076 -118.38063 101 ft 12 kts 88°
2026-04-26 04:26 33.94048 -118.38006 100 ft 7 kts 159°
2026-04-26 04:27 33.94003 -118.38007 100 ft 5 kts 200°
2026-04-26 04:27 33.93988 -118.38027 102 ft 0 kts 238°
2026-04-26 04:28 33.93978 -118.38083 101 ft 16 kts 263°
2026-04-26 04:28 33.93946 -118.38392 106 ft 67 kts 263°
2026-04-26 04:29 33.93865 -118.39194 103 ft 125 kts 263°
2026-04-26 04:29 33.93742 -118.40422 227 ft 162 kts 263°
2026-04-26 04:29 33.93616 -118.41714 1027 ft 150 kts 263°
2026-04-26 04:29 33.93491 -118.42975 1627 ft 156 kts 263°
2026-04-26 04:30 33.93345 -118.44366 1985 ft 179 kts 263°
2026-04-26 04:30 33.93119 -118.45919 2203 ft 199 kts 254°
2026-04-26 04:30 33.92619 -118.47560 2440 ft 218 kts 248°
2026-04-26 04:30 33.92004 -118.49305 2719 ft 234 kts 248°
2026-04-26 04:31 33.91349 -118.51148 3146 ft 244 kts 248°
2026-04-26 04:31 33.90679 -118.53043 3718 ft 248 kts 248°
2026-04-26 04:31 33.89999 -118.54959 4328 ft 249 kts 248°
2026-04-26 04:31 33.89315 -118.56882 4960 ft 251 kts 248°
2026-04-26 04:32 33.88629 -118.58820 5555 ft 253 kts 248°
2026-04-26 04:32 33.87943 -118.60771 6180 ft 254 kts 248°
2026-04-26 04:32 33.87263 -118.62736 6785 ft 255 kts 248°
2026-04-26 04:32 33.86585 -118.64713 7336 ft 257 kts 248°
2026-04-26 04:33 33.85907 -118.66704 7934 ft 257 kts 249°
2026-04-26 04:33 33.85183 -118.68671 8573 ft 258 kts 246°
2026-04-26 04:33 33.84407 -118.70623 9141 ft 261 kts 241°
2026-04-26 04:33 33.83295 -118.72357 9714 ft 265 kts 225°
2026-04-26 04:34 33.81734 -118.73566 10201 ft 275 kts 205°
2026-04-26 04:34 33.79784 -118.73917 10416 ft 298 kts 178°
2026-04-26 04:34 33.77772 -118.73039 10603 ft 323 kts 149°
2026-04-26 04:34 33.76190 -118.71017 10797 ft 345 kts 126°
2026-04-26 04:35 33.75065 -118.68399 11033 ft 360 kts 115°
2026-04-26 04:35 33.74154 -118.65533 11241 ft 373 kts 112°
2026-04-26 04:35 33.73274 -118.62545 11451 ft 384 kts 112°
2026-04-26 04:35 33.72338 -118.59514 11824 ft 389 kts 114°
2026-04-26 04:36 33.71513 -118.57021 12139 ft 392 kts 115°
2026-04-26 04:36 33.70884 -118.53806 12523 ft 402 kts 94°
2026-04-26 04:36 33.71218 -118.50468 12946 ft 406 kts 76°
2026-04-26 04:36 33.71884 -118.47161 13354 ft 409 kts 75°
2026-04-26 04:37 33.72797 -118.43914 13775 ft 412 kts 69°
2026-04-26 04:37 33.73821 -118.40678 14124 ft 415 kts 68°
2026-04-26 04:37 33.74872 -118.37435 14504 ft 418 kts 68°
2026-04-26 04:37 33.75943 -118.34168 14845 ft 422 kts 68°
2026-04-26 04:38 33.77031 -118.30881 15169 ft 426 kts 68°
2026-04-26 04:38 33.78130 -118.27557 15554 ft 428 kts 68°
2026-04-26 04:38 33.79229 -118.24217 15951 ft 430 kts 68°
2026-04-26 04:38 33.80432 -118.20898 16315 ft 433 kts 65°
2026-04-26 04:39 33.81681 -118.17587 16700 ft 435 kts 65°
2026-04-26 04:39 33.82953 -118.14273 17062 ft 437 kts 64°
2026-04-26 04:39 33.84229 -118.10997 17410 ft 439 kts 63°
2026-04-26 04:39 33.85811 -118.07845 17776 ft 440 kts 52°
2026-04-26 04:40 33.87685 -118.04922 18137 ft 443 kts 49°
2026-04-26 04:40 33.89686 -118.02080 18447 ft 445 kts 47°
2026-04-26 04:40 33.91767 -117.99276 18754 ft 448 kts 46°
2026-04-26 04:40 33.93860 -117.96515 19020 ft 451 kts 45°
2026-04-26 04:41 33.96001 -117.93703 19310 ft 454 kts 45°
2026-04-26 04:41 33.98097 -117.90938 19575 ft 457 kts 46°
2026-04-26 04:41 34.00286 -117.88033 19875 ft 460 kts 46°
2026-04-26 04:41 34.02443 -117.85154 20160 ft 463 kts 46°
2026-04-26 04:42 34.04574 -117.82297 20430 ft 466 kts 46°
2026-04-26 04:42 34.06754 -117.79369 20693 ft 469 kts 46°
2026-04-26 04:42 34.08939 -117.76428 20973 ft 472 kts 46°
2026-04-26 04:42 34.11136 -117.73467 21232 ft 475 kts 46°
2026-04-26 04:43 34.13348 -117.70484 21536 ft 478 kts 46°
2026-04-26 04:43 34.15575 -117.67480 21990 ft 483 kts 46°
2026-04-26 04:43 34.17824 -117.64444 22443 ft 487 kts 46°
2026-04-26 04:43 34.20086 -117.61387 23017 ft 488 kts 47°
2026-04-26 04:44 34.22349 -117.58318 23563 ft 490 kts 47°
2026-04-26 04:44 34.24631 -117.55227 23865 ft 495 kts 47°
2026-04-26 04:44 34.26928 -117.52111 24219 ft 499 kts 47°
2026-04-26 04:44 34.29249 -117.48968 24577 ft 502 kts 47°
2026-04-26 04:45 34.31586 -117.45804 24863 ft 508 kts 47°
2026-04-26 04:45 34.33152 -117.43682 25005 ft 513 kts 48°
2026-04-26 04:45 34.36338 -117.39353 25467 ft 517 kts 48°
2026-04-26 04:45 34.38737 -117.36089 25858 ft 520 kts 48°
2026-04-26 04:46 34.40331 -117.33918 26066 ft 522 kts 48°
2026-04-26 04:46 34.42748 -117.30624 26436 ft 524 kts 48°
2026-04-26 04:46 34.45174 -117.27314 26790 ft 527 kts 48°
2026-04-26 04:46 34.47618 -117.23978 27167 ft 531 kts 48°
2026-04-26 04:47 34.50075 -117.20619 27512 ft 534 kts 48°
2026-04-26 04:47 34.52541 -117.17246 27798 ft 537 kts 48°
2026-04-26 04:47 34.55009 -117.13865 28404 ft 533 kts 48°
2026-04-26 04:47 34.57461 -117.10502 28910 ft 533 kts 48°
2026-04-26 04:48 34.62405 -117.03718 29502 ft 540 kts 48°
2026-04-26 04:48 34.64896 -117.00293 29799 ft 542 kts 48°
2026-04-26 04:48 34.67397 -116.96853 30062 ft 545 kts 48°
2026-04-26 04:49 34.69910 -116.93391 30304 ft 547 kts 48°
2026-04-26 04:49 34.72434 -116.89913 30529 ft 550 kts 48°
2026-04-26 04:49 34.74968 -116.86414 30748 ft 552 kts 48°
2026-04-26 04:49 34.77502 -116.82916 31072 ft 551 kts 49°
2026-04-26 04:50 34.80033 -116.79415 31370 ft 552 kts 49°
2026-04-26 04:50 34.82569 -116.75904 31627 ft 552 kts 49°
2026-04-26 04:50 34.85105 -116.72386 31911 ft 552 kts 49°
2026-04-26 04:50 34.87638 -116.68872 32216 ft 552 kts 49°
2026-04-26 04:51 34.90167 -116.65360 32574 ft 550 kts 49°
2026-04-26 04:51 34.92684 -116.61862 32862 ft 550 kts 49°
2026-04-26 04:51 34.95208 -116.58350 33098 ft 551 kts 49°
2026-04-26 04:51 34.97735 -116.54831 33306 ft 553 kts 49°
2026-04-26 04:52 35.02851 -116.47693 33422 ft 560 kts 49°
2026-04-26 04:52 35.05410 -116.44118 33730 ft 559 kts 49°
2026-04-26 04:52 35.07966 -116.40543 33957 ft 559 kts 49°
2026-04-26 04:53 35.10524 -116.36963 34151 ft 559 kts 49°
2026-04-26 04:53 35.13080 -116.33382 34354 ft 559 kts 49°
2026-04-26 04:53 35.15635 -116.29798 34563 ft 559 kts 49°
2026-04-26 04:53 35.18184 -116.26218 34751 ft 559 kts 49°
2026-04-26 04:54 35.23305 -116.19004 34993 ft 561 kts 49°
2026-04-26 04:54 35.25854 -116.15406 35305 ft 558 kts 49°
2026-04-26 04:54 35.28394 -116.11824 35513 ft 558 kts 49°
2026-04-26 04:55 35.30939 -116.08233 35626 ft 559 kts 49°
2026-04-26 04:55 35.33487 -116.04636 35796 ft 559 kts 49°
2026-04-26 04:55 35.35997 -116.01088 35975 ft 559 kts 49°
2026-04-26 04:55 35.38539 -115.97490 36135 ft 558 kts 49°
2026-04-26 04:56 35.41076 -115.93891 36277 ft 558 kts 49°
2026-04-26 04:56 35.43649 -115.90240 36447 ft 558 kts 49°
2026-04-26 04:56 35.46148 -115.86691 36624 ft 557 kts 49°
2026-04-26 04:56 35.48679 -115.83094 36756 ft 557 kts 49°
2026-04-26 04:57 35.53756 -115.75863 36812 ft 562 kts 49°
2026-04-26 04:57 35.58866 -115.68569 36810 ft 564 kts 49°
2026-04-26 04:58 35.63974 -115.61260 36807 ft 564 kts 49°
2026-04-26 04:58 35.69087 -115.53928 36813 ft 566 kts 49°
2026-04-26 04:59 35.74210 -115.46568 36800 ft 566 kts 49°
2026-04-26 04:59 35.79324 -115.39200 36788 ft 566 kts 49°
2026-04-26 05:00 35.84427 -115.31838 36780 ft 566 kts 49°
2026-04-26 05:00 35.89555 -115.24427 36775 ft 566 kts 49°
2026-04-26 05:01 35.94651 -115.17043 36766 ft 564 kts 49°
2026-04-26 05:01 35.99711 -115.09694 36766 ft 564 kts 49°
2026-04-26 05:02 36.04787 -115.02304 36780 ft 564 kts 49°
2026-04-26 05:02 36.09853 -114.94916 36681 ft 561 kts 50°
2026-04-26 05:03 36.14880 -114.87567 36698 ft 559 kts 50°
2026-04-26 05:03 36.19892 -114.80196 36672 ft 559 kts 51°
2026-04-26 05:04 36.24645 -114.72580 36659 ft 558 kts 54°
2026-04-26 05:04 36.29284 -114.64882 36646 ft 557 kts 54°
2026-04-26 05:05 36.33948 -114.57207 36624 ft 557 kts 53°
2026-04-26 05:05 36.38638 -114.49559 36631 ft 557 kts 53°
2026-04-26 05:06 36.43337 -114.41906 36631 ft 557 kts 53°
2026-04-26 05:06 36.48027 -114.34251 36630 ft 558 kts 53°
2026-04-26 05:07 36.52724 -114.26562 36625 ft 559 kts 53°
2026-04-26 05:07 36.57423 -114.18849 36653 ft 559 kts 53°
2026-04-26 05:08 36.62102 -114.11153 36641 ft 557 kts 53°
2026-04-26 05:08 36.66779 -114.03451 36640 ft 558 kts 54°
2026-04-26 05:09 36.71448 -113.95739 36659 ft 558 kts 53°
2026-04-26 05:09 36.76119 -113.87999 36651 ft 558 kts 53°
2026-04-26 05:10 36.80786 -113.80249 36682 ft 559 kts 53°
2026-04-26 05:10 36.85416 -113.72548 36712 ft 558 kts 53°
2026-04-26 05:11 36.90072 -113.64770 36752 ft 559 kts 54°
2026-04-26 05:11 36.94729 -113.56978 36766 ft 559 kts 54°
2026-04-26 05:12 36.99368 -113.49200 36768 ft 558 kts 54°
2026-04-26 05:12 37.03999 -113.41422 36715 ft 557 kts 54°
2026-04-26 05:13 37.08633 -113.33619 36768 ft 559 kts 54°
2026-04-26 05:13 37.13268 -113.25796 36787 ft 559 kts 54°
2026-04-26 05:14 37.17897 -113.17964 36783 ft 559 kts 54°
2026-04-26 05:14 37.22524 -113.10116 36761 ft 559 kts 54°
2026-04-26 05:15 37.27147 -113.02259 36740 ft 559 kts 53°
2026-04-26 05:15 37.31772 -112.94416 36742 ft 557 kts 54°
2026-04-26 05:16 37.36358 -112.86562 36747 ft 557 kts 54°
2026-04-26 05:16 37.40937 -112.78713 36756 ft 556 kts 54°
2026-04-26 05:17 37.45513 -112.70866 36761 ft 556 kts 54°
2026-04-26 05:17 37.50050 -112.63065 36760 ft 556 kts 54°
2026-04-26 05:18 37.54611 -112.55200 36755 ft 556 kts 54°
2026-04-26 05:18 37.59164 -112.47330 36806 ft 556 kts 54°
2026-04-26 05:19 37.63718 -112.39442 36848 ft 557 kts 54°
2026-04-26 05:19 37.68331 -112.31576 36900 ft 558 kts 49°
2026-04-26 05:20 37.73688 -112.24516 36934 ft 557 kts 44°
2026-04-26 05:20 37.79229 -112.17671 36931 ft 557 kts 43°
2026-04-26 05:21 37.84799 -112.10855 36891 ft 557 kts 43°
2026-04-26 05:21 37.90352 -112.04025 36839 ft 556 kts 43°
2026-04-26 05:22 37.95883 -111.97186 36788 ft 554 kts 43°
2026-04-26 05:22 38.01387 -111.90358 36728 ft 554 kts 43°
2026-04-26 05:23 38.06886 -111.83521 36736 ft 554 kts 43°
2026-04-26 05:23 38.12384 -111.76670 36728 ft 553 kts 43°
2026-04-26 05:24 38.17834 -111.69865 36727 ft 553 kts 43°
2026-04-26 05:24 38.23316 -111.63006 36730 ft 552 kts 43°
2026-04-26 05:25 38.28784 -111.56148 36731 ft 552 kts 43°
2026-04-26 05:25 38.34250 -111.49276 36719 ft 552 kts 43°
2026-04-26 05:26 38.39714 -111.42407 36717 ft 552 kts 43°
2026-04-26 05:26 38.45176 -111.35517 36718 ft 552 kts 43°
2026-04-26 05:27 38.50617 -111.28619 36718 ft 552 kts 43°
2026-04-26 05:27 38.56059 -111.21717 36682 ft 551 kts 43°
2026-04-26 05:28 38.61487 -111.14812 36688 ft 550 kts 43°
2026-04-26 05:28 38.66906 -111.07911 36672 ft 550 kts 43°
2026-04-26 05:29 38.72318 -111.00988 36690 ft 550 kts 43°
2026-04-26 05:29 38.77720 -110.94060 36675 ft 550 kts 44°
2026-04-26 05:30 38.83128 -110.87124 36672 ft 550 kts 43°
2026-04-26 05:30 38.88542 -110.80176 36671 ft 550 kts 43°
2026-04-26 05:31 38.93946 -110.73215 36664 ft 550 kts 43°
2026-04-26 05:31 38.99342 -110.66244 36675 ft 550 kts 44°
2026-04-26 05:32 39.04732 -110.59270 36671 ft 550 kts 44°
2026-04-26 05:32 39.10118 -110.52281 36664 ft 549 kts 44°
2026-04-26 05:33 39.14587 -110.46470 36658 ft 549 kts 44°
2026-04-26 05:33 39.19958 -110.39469 36668 ft 550 kts 44°
2026-04-26 05:34 39.25335 -110.32446 36670 ft 550 kts 44°
2026-04-26 05:34 39.30708 -110.25414 36677 ft 550 kts 44°
2026-04-26 05:35 39.36078 -110.18373 36689 ft 550 kts 44°
2026-04-26 05:35 39.41436 -110.11328 36687 ft 549 kts 44°
2026-04-26 05:36 39.46789 -110.04267 36693 ft 549 kts 44°
2026-04-26 05:36 39.52113 -109.97169 36700 ft 550 kts 46°
2026-04-26 05:37 39.57104 -109.89654 36691 ft 551 kts 49°
2026-04-26 05:37 39.62018 -109.82026 36697 ft 551 kts 49°
2026-04-26 05:38 39.66976 -109.74439 36687 ft 552 kts 48°
2026-04-26 05:38 39.71981 -109.66849 36685 ft 554 kts 48°
2026-04-26 05:39 39.76997 -109.59243 36681 ft 554 kts 48°
2026-04-26 05:39 39.82001 -109.51633 36682 ft 554 kts 48°
2026-04-26 05:40 39.86998 -109.44003 36677 ft 554 kts 48°
2026-04-26 05:40 39.91991 -109.36374 36694 ft 553 kts 48°
2026-04-26 05:41 39.96964 -109.28749 36687 ft 552 kts 48°
2026-04-26 05:41 40.01928 -109.21114 36698 ft 551 kts 48°
2026-04-26 05:42 40.06883 -109.13476 36697 ft 551 kts 48°
2026-04-26 05:42 40.11836 -109.05824 36703 ft 552 kts 48°
2026-04-26 05:43 40.16787 -108.98159 36705 ft 552 kts 48°
2026-04-26 05:43 40.21732 -108.90483 36709 ft 552 kts 48°
2026-04-26 05:44 40.26671 -108.82798 36708 ft 552 kts 48°
2026-04-26 05:44 40.31600 -108.75085 36719 ft 553 kts 48°
2026-04-26 05:45 40.36529 -108.67353 36717 ft 552 kts 48°
2026-04-26 05:45 40.41460 -108.59636 36719 ft 552 kts 48°
2026-04-26 05:46 40.46395 -108.51899 36734 ft 552 kts 48°
2026-04-26 05:46 40.51315 -108.44154 36731 ft 552 kts 48°
2026-04-26 05:47 40.56221 -108.36398 36750 ft 551 kts 48°
2026-04-26 05:47 40.61121 -108.28640 36753 ft 551 kts 48°
2026-04-26 05:48 40.66016 -108.20864 36760 ft 551 kts 48°
2026-04-26 05:48 40.70908 -108.13077 36783 ft 552 kts 48°
2026-04-26 05:49 40.78201 -108.01429 36816 ft 551 kts 48°
2026-04-26 05:50 40.83073 -107.93622 36809 ft 551 kts 48°
2026-04-26 05:50 40.87940 -107.85807 36814 ft 551 kts 48°
2026-04-26 05:51 40.92799 -107.77982 36865 ft 551 kts 48°
2026-04-26 05:51 40.97657 -107.70139 36892 ft 551 kts 48°
2026-04-26 05:52 41.02511 -107.62282 36920 ft 551 kts 48°
2026-04-26 05:52 41.07356 -107.54421 36928 ft 551 kts 48°
2026-04-26 05:53 41.12202 -107.46535 36923 ft 551 kts 48°
2026-04-26 05:53 41.17037 -107.38648 36887 ft 551 kts 48°
2026-04-26 05:54 41.21871 -107.30744 36874 ft 551 kts 48°
2026-04-26 05:54 41.26696 -107.22832 36850 ft 551 kts 49°
2026-04-26 05:55 41.31515 -107.14909 36835 ft 551 kts 49°
2026-04-26 05:55 41.36331 -107.06968 36839 ft 552 kts 49°
2026-04-26 05:56 41.41147 -106.99009 36823 ft 551 kts 49°
2026-04-26 05:56 41.45949 -106.91054 36817 ft 551 kts 49°
2026-04-26 05:56 41.48346 -106.87077 36923 ft 551 kts 49°
2026-04-26 05:57 41.50742 -106.83094 36814 ft 551 kts 49°
2026-04-26 05:57 41.55530 -106.75120 36806 ft 551 kts 49°
2026-04-26 05:58 41.60311 -106.67135 36803 ft 550 kts 49°
2026-04-26 05:58 41.65083 -106.59143 36817 ft 549 kts 49°
2026-04-26 05:59 41.69842 -106.51150 36818 ft 549 kts 49°
2026-04-26 05:59 41.74602 -106.43142 36836 ft 549 kts 49°
2026-04-26 06:00 41.79352 -106.35127 36832 ft 549 kts 49°
2026-04-26 06:00 41.84091 -106.27104 36860 ft 548 kts 49°
2026-04-26 06:01 41.88778 -106.19152 36897 ft 547 kts 49°
2026-04-26 06:01 41.93487 -106.11142 36888 ft 546 kts 49°
2026-04-26 06:02 41.98190 -106.03121 36923 ft 546 kts 49°
2026-04-26 06:02 42.02946 -105.95160 36919 ft 545 kts 46°
2026-04-26 06:03 42.07929 -105.87491 36946 ft 544 kts 45°
2026-04-26 06:03 42.12939 -105.79847 36968 ft 544 kts 45°
2026-04-26 06:04 42.17902 -105.72158 36964 ft 543 kts 46°
2026-04-26 06:04 42.22837 -105.64433 36958 ft 543 kts 46°
2026-04-26 06:05 42.27763 -105.56690 36983 ft 543 kts 46°
2026-04-26 06:05 42.32682 -105.48946 37009 ft 543 kts 46°
2026-04-26 06:06 42.37599 -105.41183 37005 ft 543 kts 46°
2026-04-26 06:06 42.42510 -105.33405 37031 ft 544 kts 46°
2026-04-26 06:07 42.47425 -105.25603 37028 ft 545 kts 46°
2026-04-26 06:07 42.52347 -105.17773 37038 ft 546 kts 46°
2026-04-26 06:08 42.57262 -105.09931 37038 ft 546 kts 46°
2026-04-26 06:08 42.62170 -105.02079 37046 ft 546 kts 46°
2026-04-26 06:09 42.67076 -104.94209 37066 ft 546 kts 46°
2026-04-26 06:09 42.71987 -104.86310 37064 ft 548 kts 46°
2026-04-26 06:10 42.76876 -104.78427 37067 ft 549 kts 46°
2026-04-26 06:10 42.81798 -104.70466 37050 ft 549 kts 46°
2026-04-26 06:11 42.86712 -104.62497 37072 ft 549 kts 46°
2026-04-26 06:11 42.91618 -104.54521 37073 ft 549 kts 46°
2026-04-26 06:12 42.96527 -104.46518 37075 ft 549 kts 46°
2026-04-26 06:12 43.01427 -104.38509 37078 ft 550 kts 46°
2026-04-26 06:13 43.06325 -104.30479 37091 ft 550 kts 46°
2026-04-26 06:13 43.11216 -104.22440 37083 ft 550 kts 46°
2026-04-26 06:14 43.16102 -104.14386 37100 ft 550 kts 46°
2026-04-26 06:14 43.20992 -104.06306 37102 ft 552 kts 46°
2026-04-26 06:15 43.25886 -103.98194 37102 ft 552 kts 46°
2026-04-26 06:15 43.30776 -103.90066 37116 ft 552 kts 46°
2026-04-26 06:16 43.35662 -103.81921 37113 ft 553 kts 46°
2026-04-26 06:16 43.40544 -103.73759 37136 ft 553 kts 46°
2026-04-26 06:17 43.45436 -103.65560 37125 ft 555 kts 47°
2026-04-26 06:17 43.50327 -103.57342 37135 ft 555 kts 47°
2026-04-26 06:18 43.55211 -103.49111 37132 ft 555 kts 47°
2026-04-26 06:18 43.59266 -103.42259 37135 ft 555 kts 47°
2026-04-26 06:19 43.64147 -103.33986 37112 ft 555 kts 47°
2026-04-26 06:19 43.69019 -103.25706 37094 ft 556 kts 47°
2026-04-26 06:20 43.73894 -103.17402 37124 ft 556 kts 47°
2026-04-26 06:20 43.78761 -103.09084 37116 ft 556 kts 47°
2026-04-26 06:21 43.83619 -103.00759 37107 ft 556 kts 47°
2026-04-26 06:21 43.88470 -102.92421 37133 ft 556 kts 47°
2026-04-26 06:22 43.93305 -102.84085 37100 ft 554 kts 47°
2026-04-26 06:22 43.98131 -102.75744 37110 ft 554 kts 47°
2026-04-26 06:23 44.02949 -102.67392 37126 ft 554 kts 47°
2026-04-26 06:23 44.07727 -102.59086 37147 ft 554 kts 47°
2026-04-26 06:24 44.12532 -102.50707 37153 ft 554 kts 47°
2026-04-26 06:24 44.17328 -102.42319 37153 ft 554 kts 47°
2026-04-26 06:25 44.22124 -102.33908 37152 ft 554 kts 47°
2026-04-26 06:25 44.26909 -102.25491 37157 ft 554 kts 47°
2026-04-26 06:26 44.31694 -102.17050 37150 ft 554 kts 47°
2026-04-26 06:26 44.36470 -102.08599 37167 ft 554 kts 47°
2026-04-26 06:27 44.41221 -102.00166 37152 ft 550 kts 47°
2026-04-26 06:27 44.45949 -101.91752 37155 ft 550 kts 47°
2026-04-26 06:28 44.50670 -101.83327 37157 ft 550 kts 47°
2026-04-26 06:28 44.55388 -101.74883 37155 ft 550 kts 47°
2026-04-26 06:29 44.60096 -101.66431 37180 ft 550 kts 48°
2026-04-26 06:29 44.64800 -101.57961 37155 ft 550 kts 48°
2026-04-26 06:30 44.69499 -101.49473 37147 ft 550 kts 48°
2026-04-26 06:30 44.74195 -101.40968 37154 ft 550 kts 48°
2026-04-26 06:31 44.78883 -101.32450 37155 ft 551 kts 48°
2026-04-26 06:31 44.83571 -101.23908 37180 ft 551 kts 49°
2026-04-26 06:32 44.88254 -101.15350 37151 ft 552 kts 49°
2026-04-26 06:32 44.92938 -101.06763 37152 ft 552 kts 49°
2026-04-26 06:33 44.97619 -100.98155 37145 ft 552 kts 49°
2026-04-26 06:33 45.02260 -100.89598 37144 ft 552 kts 49°
2026-04-26 06:34 45.06926 -100.80968 37166 ft 552 kts 49°
2026-04-26 06:34 45.11586 -100.72322 37139 ft 553 kts 49°
2026-04-26 06:35 45.16244 -100.63653 37130 ft 553 kts 49°
2026-04-26 06:35 45.20897 -100.54967 37129 ft 553 kts 49°
2026-04-26 06:36 45.25542 -100.46268 37111 ft 553 kts 49°
2026-04-26 06:36 45.30184 -100.37551 37111 ft 553 kts 49°
2026-04-26 06:37 45.34815 -100.28827 37124 ft 553 kts 50°
2026-04-26 06:37 45.39440 -100.20087 37138 ft 553 kts 50°
2026-04-26 06:38 45.44059 -100.11332 37135 ft 553 kts 50°
2026-04-26 06:38 45.48683 -100.02572 37124 ft 552 kts 48°
2026-04-26 06:39 45.53955 -99.94711 37157 ft 547 kts 40°
2026-04-26 06:39 45.59466 -99.87238 37145 ft 546 kts 39°
2026-04-26 06:40 45.65006 -99.79826 37145 ft 546 kts 39°
2026-04-26 06:40 45.70536 -99.72392 37146 ft 546 kts 39°
2026-04-26 06:41 45.76057 -99.64924 37145 ft 546 kts 39°
2026-04-26 06:41 45.81563 -99.57447 37142 ft 545 kts 40°
2026-04-26 06:42 45.87058 -99.49961 37143 ft 545 kts 40°
2026-04-26 06:42 45.92547 -99.42462 37145 ft 545 kts 40°
2026-04-26 06:43 45.98032 -99.34949 37141 ft 545 kts 40°
2026-04-26 06:43 46.03512 -99.27421 37137 ft 543 kts 40°
2026-04-26 06:44 46.08973 -99.19896 37141 ft 543 kts 40°
2026-04-26 06:44 46.14385 -99.12419 37137 ft 543 kts 40°
2026-04-26 06:45 46.19867 -99.04823 37141 ft 543 kts 40°
2026-04-26 06:45 46.25267 -98.97319 37140 ft 541 kts 41°
2026-04-26 06:46 46.30686 -98.89765 37138 ft 541 kts 41°
2026-04-26 06:46 46.36098 -98.82200 37136 ft 541 kts 41°
2026-04-26 06:47 46.41501 -98.74626 37139 ft 541 kts 41°
2026-04-26 06:47 46.46899 -98.67037 37140 ft 541 kts 41°
2026-04-26 06:48 46.52296 -98.59427 37142 ft 541 kts 41°
2026-04-26 06:48 46.57682 -98.51810 37141 ft 541 kts 41°
2026-04-26 06:49 46.63066 -98.44174 37137 ft 541 kts 41°
2026-04-26 06:49 46.68445 -98.36523 37139 ft 540 kts 42°
2026-04-26 06:50 46.73801 -98.28881 37128 ft 538 kts 42°
2026-04-26 06:50 46.79145 -98.21233 37123 ft 538 kts 42°
2026-04-26 06:51 46.84479 -98.13580 37109 ft 538 kts 42°
2026-04-26 06:51 46.92482 -98.02053 37112 ft 538 kts 43°
2026-04-26 06:52 46.97805 -97.94356 37109 ft 537 kts 43°
2026-04-26 06:52 47.03111 -97.86662 37114 ft 537 kts 43°
2026-04-26 06:53 47.08415 -97.78950 37120 ft 537 kts 43°
2026-04-26 06:53 47.13671 -97.71283 37142 ft 537 kts 43°
2026-04-26 06:54 47.18958 -97.63550 37129 ft 536 kts 43°
2026-04-26 06:54 47.24235 -97.55806 37127 ft 536 kts 43°
2026-04-26 06:55 47.29503 -97.48053 37129 ft 536 kts 43°
2026-04-26 06:55 47.34771 -97.40278 37124 ft 536 kts 43°
2026-04-26 06:56 47.40029 -97.32493 37121 ft 535 kts 44°
2026-04-26 06:56 47.45278 -97.24699 37119 ft 535 kts 44°
2026-04-26 06:57 47.50522 -97.16888 37116 ft 535 kts 44°
2026-04-26 06:57 47.55762 -97.09060 37113 ft 535 kts 44°
2026-04-26 06:58 47.60994 -97.01220 37122 ft 535 kts 44°
2026-04-26 06:58 47.66222 -96.93363 37118 ft 535 kts 44°
2026-04-26 06:59 47.71440 -96.85497 37124 ft 535 kts 44°
2026-04-26 06:59 47.76654 -96.77612 37124 ft 535 kts 44°
2026-04-26 07:00 47.81865 -96.69709 37093 ft 535 kts 44°
2026-04-26 07:00 47.87072 -96.61786 37072 ft 535 kts 44°
2026-04-26 07:01 47.92274 -96.53849 37124 ft 535 kts 44°
2026-04-26 07:01 47.97470 -96.45895 37118 ft 535 kts 45°
2026-04-26 07:02 48.02626 -96.37979 37101 ft 535 kts 45°
2026-04-26 07:02 48.07809 -96.29997 37110 ft 535 kts 45°
2026-04-26 07:03 48.12993 -96.21988 37109 ft 536 kts 45°
2026-04-26 07:03 48.18172 -96.13963 37114 ft 536 kts 45°
2026-04-26 07:04 48.23343 -96.05924 37122 ft 535 kts 45°
2026-04-26 07:04 48.28507 -95.97873 37150 ft 536 kts 45°
2026-04-26 07:05 48.33673 -95.89792 37152 ft 536 kts 45°
2026-04-26 07:05 48.37957 -95.83073 37140 ft 536 kts 45°
2026-04-26 07:06 48.43109 -95.74968 37153 ft 536 kts 45°
2026-04-26 07:06 48.48257 -95.66845 37155 ft 536 kts 45°
2026-04-26 07:07 48.53400 -95.58703 37161 ft 536 kts 46°
2026-04-26 07:07 48.58535 -95.50548 37150 ft 536 kts 46°
2026-04-26 07:08 48.63669 -95.42369 37144 ft 536 kts 46°
2026-04-26 07:08 48.68795 -95.34177 37141 ft 536 kts 46°
2026-04-26 07:09 48.73918 -95.25965 37122 ft 536 kts 46°
2026-04-26 07:09 48.79035 -95.17735 37124 ft 537 kts 46°
2026-04-26 07:11 48.91822 -94.97055 37131 ft 537 kts 46°
2026-04-26 07:11 48.96930 -94.88748 37131 ft 537 kts 46°
2026-04-26 07:12 49.02027 -94.80432 37143 ft 537 kts 46°
2026-04-26 07:12 49.07117 -94.72101 37133 ft 537 kts 46°
2026-04-26 07:13 49.12202 -94.63750 37135 ft 537 kts 46°
2026-04-26 07:13 49.17279 -94.55385 37129 ft 537 kts 46°
2026-04-26 07:14 49.22347 -94.47009 37149 ft 537 kts 47°
2026-04-26 07:14 49.27376 -94.38670 37132 ft 535 kts 47°
2026-04-26 07:15 49.32417 -94.30283 37133 ft 535 kts 47°
2026-04-26 07:15 49.37463 -94.21862 37133 ft 535 kts 47°
2026-04-26 07:16 49.42452 -94.13508 37132 ft 535 kts 47°
2026-04-26 07:16 49.47558 -94.05184 37127 ft 534 kts 41°
2026-04-26 07:17 49.53231 -93.97835 37137 ft 533 kts 38°
2026-04-26 07:17 49.59006 -93.90684 37125 ft 533 kts 37°
2026-04-26 07:18 49.64794 -93.83557 37133 ft 533 kts 38°
2026-04-26 07:18 49.70569 -93.76405 37137 ft 532 kts 38°
2026-04-26 07:19 49.76335 -93.69223 37144 ft 532 kts 38°
2026-04-26 07:19 49.82095 -93.62018 37108 ft 532 kts 38°
2026-04-26 07:20 49.87848 -93.54802 37129 ft 533 kts 38°
2026-04-26 07:20 49.93602 -93.47562 37135 ft 533 kts 38°
2026-04-26 07:21 49.99357 -93.40299 37137 ft 533 kts 38°
2026-04-26 07:21 50.05106 -93.33019 37134 ft 533 kts 38°
2026-04-26 07:22 50.10846 -93.25728 37128 ft 533 kts 38°
2026-04-26 07:22 50.16583 -93.18417 37127 ft 533 kts 39°
2026-04-26 07:23 50.22309 -93.11097 37131 ft 532 kts 39°
2026-04-26 07:23 50.28026 -93.03765 37130 ft 531 kts 39°
2026-04-26 07:24 50.33734 -92.96420 37138 ft 531 kts 39°
2026-04-26 07:24 50.39400 -92.89107 37139 ft 532 kts 39°
2026-04-26 07:25 50.45098 -92.81728 37133 ft 531 kts 39°
2026-04-26 07:25 50.50787 -92.74337 37123 ft 530 kts 39°
2026-04-26 07:26 50.56463 -92.66941 37125 ft 529 kts 40°
2026-04-26 07:26 50.62124 -92.59538 37141 ft 529 kts 40°
2026-04-26 07:27 50.67782 -92.52117 37139 ft 529 kts 40°
2026-04-26 07:27 50.73433 -92.44679 37137 ft 529 kts 40°
2026-04-26 07:28 50.79077 -92.37228 37128 ft 529 kts 40°
2026-04-26 07:28 50.84711 -92.29764 37138 ft 529 kts 40°
2026-04-26 07:29 50.90348 -92.22273 37128 ft 529 kts 40°
2026-04-26 07:29 50.95981 -92.14763 37134 ft 529 kts 40°
2026-04-26 07:30 51.01605 -92.07239 37136 ft 529 kts 40°
2026-04-26 07:30 51.07220 -91.99703 37132 ft 529 kts 41°
2026-04-26 07:31 51.12837 -91.92140 37126 ft 529 kts 41°
2026-04-26 07:31 51.18448 -91.84559 37130 ft 529 kts 41°
2026-04-26 07:32 51.24021 -91.77006 37126 ft 529 kts 41°
2026-04-26 07:32 51.29627 -91.69382 37127 ft 530 kts 41°
2026-04-26 07:33 51.35231 -91.61736 37121 ft 530 kts 41°
2026-04-26 07:33 51.40838 -91.54060 37126 ft 530 kts 41°
2026-04-26 07:34 51.46443 -91.46361 37122 ft 530 kts 41°
2026-04-26 07:34 51.52040 -91.38647 37119 ft 531 kts 41°
2026-04-26 07:35 51.57646 -91.30894 37125 ft 532 kts 41°
2026-04-26 07:35 51.63251 -91.23118 37105 ft 532 kts 41°
2026-04-26 07:36 51.68853 -91.15318 37096 ft 532 kts 41°
2026-04-26 07:36 51.74447 -91.07503 37111 ft 532 kts 41°
2026-04-26 07:37 51.80039 -90.99665 37110 ft 532 kts 41°
2026-04-26 07:37 51.85612 -90.91827 37100 ft 531 kts 41°
2026-04-26 07:38 51.91174 -90.83977 37096 ft 530 kts 41°
2026-04-26 07:38 51.96716 -90.76128 37096 ft 529 kts 41°
2026-04-26 07:39 52.02259 -90.68251 37093 ft 529 kts 41°
2026-04-26 07:39 52.07793 -90.60360 37091 ft 528 kts 42°
2026-04-26 07:40 52.13300 -90.52480 37089 ft 527 kts 42°
2026-04-26 07:40 52.18801 -90.44582 37090 ft 526 kts 42°
2026-04-26 07:41 52.24279 -90.36690 37094 ft 525 kts 42°
2026-04-26 07:41 52.29747 -90.28785 37095 ft 525 kts 42°
2026-04-26 07:42 52.35168 -90.20922 37088 ft 524 kts 42°
2026-04-26 07:42 52.40643 -90.12953 37100 ft 523 kts 42°
2026-04-26 07:43 52.46044 -90.05063 37097 ft 523 kts 43°
2026-04-26 07:43 52.51474 -89.97105 37086 ft 523 kts 43°
2026-04-26 07:44 52.56892 -89.89138 37099 ft 522 kts 43°
2026-04-26 07:44 52.62298 -89.81159 37102 ft 522 kts 43°
2026-04-26 07:45 52.67697 -89.73163 37104 ft 522 kts 43°
2026-04-26 07:45 52.73093 -89.65144 37103 ft 522 kts 43°
2026-04-26 07:46 52.78478 -89.57114 37109 ft 522 kts 43°
2026-04-26 07:46 52.83858 -89.49065 37107 ft 521 kts 43°
2026-04-26 07:47 52.89224 -89.41006 37109 ft 521 kts 43°
2026-04-26 07:47 52.94589 -89.32921 37116 ft 521 kts 43°
2026-04-26 07:48 52.99946 -89.24820 37117 ft 521 kts 44°
2026-04-26 07:48 53.05293 -89.16707 37124 ft 520 kts 44°
2026-04-26 07:49 53.10622 -89.08591 37122 ft 519 kts 44°
2026-04-26 07:49 53.15943 -89.00459 37121 ft 519 kts 44°
2026-04-26 07:50 53.23909 -88.88232 37131 ft 518 kts 44°
2026-04-26 07:50 53.29203 -88.80071 37132 ft 517 kts 44°
2026-04-26 07:51 53.34471 -88.71919 37136 ft 516 kts 44°
2026-04-26 07:51 53.39703 -88.63796 37132 ft 516 kts 44°
2026-04-26 07:52 53.44109 -88.56933 37135 ft 516 kts 44°
2026-04-26 07:52 53.49361 -88.48725 37141 ft 516 kts 44°
2026-04-26 07:53 53.55458 -88.39161 37142 ft 515 kts 45°
2026-04-26 07:53 53.60692 -88.30918 37146 ft 515 kts 45°
2026-04-26 07:54 53.65072 -88.23998 37146 ft 515 kts 45°
2026-04-26 07:54 53.70289 -88.15728 37145 ft 515 kts 45°
2026-04-26 07:55 53.75501 -88.07437 37148 ft 514 kts 45°
2026-04-26 07:55 53.80663 -87.99197 37149 ft 514 kts 45°
2026-04-26 07:56 53.85884 -87.90831 37151 ft 513 kts 45°
2026-04-26 07:56 53.91058 -87.82511 37151 ft 512 kts 45°
2026-04-26 07:57 53.96215 -87.74188 37151 ft 512 kts 45°
2026-04-26 07:57 54.01332 -87.65902 37151 ft 511 kts 46°
2026-04-26 07:58 54.06467 -87.57555 37151 ft 510 kts 46°
2026-04-26 07:58 54.11595 -87.49189 37155 ft 510 kts 46°
2026-04-26 07:59 54.16717 -87.40803 37148 ft 510 kts 46°
2026-04-26 07:59 54.21831 -87.32400 37143 ft 510 kts 46°
2026-04-26 08:00 54.26937 -87.23981 37151 ft 509 kts 46°
2026-04-26 08:00 54.32027 -87.15557 37150 ft 509 kts 46°
2026-04-26 08:01 54.37112 -87.07109 37147 ft 509 kts 46°
2026-04-26 08:01 54.42189 -86.98645 37145 ft 509 kts 47°
2026-04-26 08:02 54.47261 -86.90161 37144 ft 509 kts 47°
2026-04-26 08:02 54.52329 -86.81650 37140 ft 509 kts 47°
2026-04-26 08:03 54.57389 -86.73121 37137 ft 509 kts 47°
2026-04-26 08:03 54.62445 -86.64568 37140 ft 509 kts 47°
2026-04-26 08:04 54.67489 -86.56003 37140 ft 508 kts 47°
2026-04-26 08:04 54.72491 -86.47479 37140 ft 508 kts 48°
2026-04-26 08:05 54.77518 -86.38881 37143 ft 508 kts 48°
2026-04-26 08:05 54.82538 -86.30263 37146 ft 508 kts 48°
2026-04-26 08:06 54.87556 -86.21616 37146 ft 508 kts 48°
2026-04-26 08:06 54.92563 -86.12957 37143 ft 508 kts 48°
2026-04-26 08:07 54.97555 -86.04291 37147 ft 507 kts 48°
2026-04-26 08:07 55.02531 -85.95599 37149 ft 506 kts 49°
2026-04-26 08:08 55.07442 -85.86809 37141 ft 506 kts 49°
2026-04-26 08:08 55.12333 -85.77988 37145 ft 506 kts 49°
2026-04-26 08:09 55.17225 -85.69156 37145 ft 506 kts 49°
2026-04-26 08:09 55.22117 -85.60310 37148 ft 505 kts 49°
2026-04-26 08:10 55.26993 -85.51463 37152 ft 504 kts 49°
2026-04-26 08:10 55.31848 -85.42622 37155 ft 503 kts 49°
2026-04-26 08:11 55.36665 -85.33814 37163 ft 503 kts 49°
2026-04-26 08:11 55.41504 -85.24932 37165 ft 503 kts 49°
2026-04-26 08:12 55.46337 -85.16031 37164 ft 503 kts 50°
2026-04-26 08:12 55.51162 -85.07107 37167 ft 503 kts 50°
2026-04-26 08:13 55.55981 -84.98161 37167 ft 503 kts 50°
2026-04-26 08:13 55.60786 -84.89210 37168 ft 501 kts 50°
2026-04-26 08:14 55.65574 -84.80255 37175 ft 501 kts 50°
2026-04-26 08:14 55.70355 -84.71278 37175 ft 500 kts 51°
2026-04-26 08:15 55.75115 -84.62309 37178 ft 499 kts 51°
2026-04-26 08:15 55.79859 -84.53332 37184 ft 499 kts 51°
2026-04-26 08:16 55.84600 -84.44325 37185 ft 498 kts 51°
2026-04-26 08:16 55.89336 -84.35297 37179 ft 498 kts 51°
2026-04-26 08:17 55.94050 -84.26278 37189 ft 496 kts 51°
2026-04-26 08:17 55.98745 -84.17260 37189 ft 495 kts 51°
2026-04-26 08:18 56.03422 -84.08237 37180 ft 495 kts 52°
2026-04-26 08:18 56.08092 -83.99196 37199 ft 495 kts 52°
2026-04-26 08:19 56.12762 -83.90120 37201 ft 495 kts 52°
2026-04-26 08:19 56.17422 -83.81031 37198 ft 494 kts 52°
2026-04-26 08:20 56.22062 -83.71945 37194 ft 493 kts 52°
2026-04-26 08:20 56.26696 -83.62833 37198 ft 493 kts 52°
2026-04-26 08:21 56.31320 -83.53707 37200 ft 493 kts 52°
2026-04-26 08:21 56.35939 -83.44555 37206 ft 493 kts 52°
2026-04-26 08:22 56.40549 -83.35385 37195 ft 493 kts 53°
2026-04-26 08:22 56.45118 -83.26265 37214 ft 492 kts 53°
2026-04-26 08:23 56.49707 -83.17067 37213 ft 492 kts 53°
2026-04-26 08:23 56.54284 -83.07856 37217 ft 492 kts 53°
2026-04-26 08:24 56.58852 -82.98628 37215 ft 491 kts 53°
2026-04-26 08:24 56.63402 -82.89401 37218 ft 490 kts 53°
2026-04-26 08:25 56.67939 -82.80163 37222 ft 490 kts 54°
2026-04-26 08:25 56.72466 -82.70908 37230 ft 489 kts 54°
2026-04-26 08:26 56.76986 -82.61631 37228 ft 489 kts 54°
2026-04-26 08:26 56.81529 -82.52273 37228 ft 489 kts 54°
2026-04-26 08:27 56.86009 -82.43005 37239 ft 489 kts 54°
2026-04-26 08:27 56.90507 -82.33666 37225 ft 489 kts 54°
2026-04-26 08:28 56.94981 -82.24341 37241 ft 487 kts 54°
2026-04-26 08:28 56.99436 -82.15017 37246 ft 487 kts 54°
2026-04-26 08:29 57.03895 -82.05645 37249 ft 487 kts 54°
2026-04-26 08:29 57.06117 -82.00960 37380 ft 486 kts 54°
2026-04-26 08:29 57.08335 -81.96277 37663 ft 484 kts 54°
2026-04-26 08:30 57.10543 -81.91608 37923 ft 483 kts 54°
2026-04-26 08:30 57.12742 -81.86947 38120 ft 482 kts 54°
2026-04-26 08:30 57.14933 -81.82291 38307 ft 481 kts 54°
2026-04-26 08:30 57.17124 -81.77626 38505 ft 481 kts 54°
2026-04-26 08:31 57.19308 -81.72968 38673 ft 480 kts 54°
2026-04-26 08:31 57.21489 -81.68306 38844 ft 480 kts 54°
2026-04-26 08:31 57.23665 -81.63647 38979 ft 479 kts 54°
2026-04-26 08:31 57.25837 -81.58987 39115 ft 478 kts 54°
2026-04-26 08:32 57.28004 -81.54329 39226 ft 478 kts 54°
2026-04-26 08:32 57.30176 -81.49650 39269 ft 480 kts 54°
2026-04-26 08:32 57.34532 -81.40236 39268 ft 482 kts 54°
2026-04-26 08:33 57.38885 -81.30798 39265 ft 481 kts 54°
2026-04-26 08:33 57.43225 -81.21350 39266 ft 481 kts 54°
2026-04-26 08:34 57.47560 -81.11873 39268 ft 481 kts 54°
2026-04-26 08:34 57.51883 -81.02383 39270 ft 481 kts 54°
2026-04-26 08:35 57.56201 -80.92864 39263 ft 481 kts 54°
2026-04-26 08:35 57.60506 -80.83341 39265 ft 480 kts 54°
2026-04-26 08:36 57.64802 -80.73795 39282 ft 481 kts 54°
2026-04-26 08:36 57.69097 -80.64212 39285 ft 481 kts 54°
2026-04-26 08:37 57.73379 -80.54622 39287 ft 481 kts 55°
2026-04-26 08:37 57.77661 -80.44992 39282 ft 481 kts 55°
2026-04-26 08:38 57.81930 -80.35350 39287 ft 481 kts 55°
2026-04-26 08:38 57.85473 -80.27320 39283 ft 481 kts 55°
2026-04-26 08:39 57.89741 -80.17609 39289 ft 482 kts 55°
2026-04-26 08:39 57.94005 -80.07868 39293 ft 483 kts 55°
2026-04-26 08:40 57.98265 -79.98086 39296 ft 482 kts 56°
2026-04-26 08:40 58.02191 -79.87898 39298 ft 479 kts 60°
2026-04-26 08:41 58.05919 -79.77485 39301 ft 479 kts 60°
2026-04-26 08:41 58.09681 -79.67083 39301 ft 481 kts 60°
2026-04-26 08:42 58.13493 -79.56684 39312 ft 481 kts 59°
2026-04-26 08:42 58.17317 -79.46273 39304 ft 481 kts 59°
2026-04-26 08:43 58.21136 -79.35828 39306 ft 482 kts 60°
2026-04-26 08:43 58.24945 -79.25359 39315 ft 482 kts 60°
2026-04-26 08:44 58.28718 -79.14939 39315 ft 482 kts 60°
2026-04-26 08:44 58.32535 -79.04348 39314 ft 482 kts 60°
2026-04-26 08:45 58.36291 -78.93881 39322 ft 482 kts 60°
2026-04-26 08:45 58.40064 -78.83318 39322 ft 482 kts 60°
2026-04-26 08:46 58.43828 -78.72735 39311 ft 482 kts 60°
2026-04-26 08:46 58.47582 -78.62133 39322 ft 482 kts 60°
2026-04-26 08:47 58.51327 -78.51509 39322 ft 482 kts 60°
2026-04-26 08:47 58.55069 -78.40845 39323 ft 484 kts 60°
2026-04-26 08:48 58.58812 -78.30131 39324 ft 484 kts 60°
2026-04-26 08:48 58.62551 -78.19382 39325 ft 484 kts 60°
2026-04-26 08:49 58.66277 -78.08620 39328 ft 484 kts 60°
2026-04-26 08:49 58.69995 -77.97832 39332 ft 484 kts 60°
2026-04-26 08:50 58.73698 -77.87038 39341 ft 483 kts 60°
2026-04-26 08:50 58.77392 -77.76220 39350 ft 484 kts 60°
2026-04-26 08:51 58.82928 -77.59914 39361 ft 485 kts 60°
2026-04-26 08:52 58.86608 -77.49014 39367 ft 484 kts 60°
2026-04-26 08:52 58.90279 -77.38090 39373 ft 484 kts 60°
2026-04-26 08:53 58.93942 -77.27139 39372 ft 484 kts 60°
2026-04-26 08:53 58.97592 -77.16174 39368 ft 484 kts 60°
2026-04-26 08:54 59.01213 -77.05247 39384 ft 485 kts 60°
2026-04-26 08:54 59.04854 -76.94206 39381 ft 485 kts 60°
2026-04-26 08:55 59.08486 -76.83142 39389 ft 485 kts 60°
2026-04-26 08:55 59.12106 -76.72065 39390 ft 485 kts 60°
2026-04-26 08:56 59.15723 -76.60943 39398 ft 485 kts 60°
2026-04-26 08:56 59.19324 -76.49816 39401 ft 485 kts 60°
2026-04-26 08:57 59.22925 -76.38636 39406 ft 487 kts 60°
2026-04-26 08:57 59.26521 -76.27418 39411 ft 487 kts 60°
2026-04-26 08:58 59.30107 -76.16180 39414 ft 487 kts 60°
2026-04-26 08:58 59.33684 -76.04915 39424 ft 487 kts 60°
2026-04-26 08:59 59.37254 -75.93615 39423 ft 487 kts 60°
2026-04-26 08:59 59.40811 -75.82304 39428 ft 487 kts 60°
2026-04-26 09:00 59.44364 -75.70950 39431 ft 489 kts 60°
2026-04-26 09:00 59.47921 -75.59528 39433 ft 490 kts 60°
2026-04-26 09:01 59.51463 -75.48101 39439 ft 488 kts 60°
2026-04-26 09:01 59.54987 -75.36671 39436 ft 488 kts 60°
2026-04-26 09:02 59.58500 -75.25220 39438 ft 488 kts 60°
2026-04-26 09:02 59.61999 -75.13761 39441 ft 488 kts 60°
2026-04-26 09:03 59.65499 -75.02243 39438 ft 489 kts 60°
2026-04-26 09:03 59.68988 -74.90701 39446 ft 489 kts 60°
2026-04-26 09:04 59.72448 -74.79200 39448 ft 489 kts 60°
2026-04-26 09:04 59.75915 -74.67615 39451 ft 488 kts 60°
2026-04-26 09:05 59.79364 -74.56035 39453 ft 487 kts 60°
2026-04-26 09:05 59.82797 -74.44452 39451 ft 487 kts 60°
2026-04-26 09:06 59.86231 -74.32805 39455 ft 489 kts 60°
2026-04-26 09:06 59.89662 -74.21107 39460 ft 490 kts 60°
2026-04-26 09:07 59.93090 -74.09360 39465 ft 490 kts 60°
2026-04-26 09:07 59.96506 -73.97598 39465 ft 490 kts 60°
2026-04-26 09:08 59.99909 -73.85818 39475 ft 489 kts 60°
2026-04-26 09:08 60.03297 -73.74030 39473 ft 488 kts 60°
2026-04-26 09:09 60.06675 -73.62214 39473 ft 490 kts 60°
2026-04-26 09:09 60.10052 -73.50341 39481 ft 491 kts 60°
2026-04-26 09:10 60.13421 -73.38436 39483 ft 491 kts 60°
2026-04-26 09:10 60.16782 -73.26493 39492 ft 491 kts 60°
2026-04-26 09:11 60.20132 -73.14531 39495 ft 491 kts 60°
2026-04-26 09:11 60.23470 -73.02548 39496 ft 491 kts 60°
2026-04-26 09:12 60.26790 -72.90557 39507 ft 491 kts 59°
2026-04-26 09:12 60.30109 -72.78517 39504 ft 492 kts 59°
2026-04-26 09:13 60.33421 -72.66438 39519 ft 492 kts 60°
2026-04-26 09:13 60.36723 -72.54329 39521 ft 492 kts 60°
2026-04-26 09:14 60.40016 -72.42190 39517 ft 492 kts 60°
2026-04-26 09:14 60.43273 -72.30118 39527 ft 492 kts 60°
2026-04-26 09:15 60.46565 -72.17848 39522 ft 492 kts 60°
2026-04-26 09:15 60.49817 -72.05660 39525 ft 491 kts 60°
2026-04-26 09:16 60.53051 -71.93478 39527 ft 490 kts 60°
2026-04-26 09:16 60.56275 -71.81265 39521 ft 490 kts 60°
2026-04-26 09:17 60.59488 -71.69026 39522 ft 490 kts 60°
2026-04-26 09:17 60.62668 -71.56846 39523 ft 490 kts 60°
2026-04-26 09:18 60.65858 -71.44563 39522 ft 492 kts 60°
2026-04-26 09:18 60.69055 -71.32184 39519 ft 494 kts 60°
2026-04-26 09:19 60.72245 -71.19763 39520 ft 493 kts 60°
2026-04-26 09:19 60.75413 -71.07357 39508 ft 492 kts 60°
2026-04-26 09:20 60.78572 -70.94919 39509 ft 492 kts 60°
2026-04-26 09:20 60.81718 -70.82463 39506 ft 492 kts 60°
2026-04-26 09:21 60.84852 -70.69983 39506 ft 493 kts 60°
2026-04-26 09:21 60.87984 -70.57438 39503 ft 495 kts 60°
2026-04-26 09:22 60.91113 -70.44840 39501 ft 495 kts 60°
2026-04-26 09:22 60.94232 -70.32205 39487 ft 495 kts 60°
2026-04-26 09:23 60.97326 -70.19595 39486 ft 494 kts 60°
2026-04-26 09:23 61.00410 -70.06956 39497 ft 493 kts 60°
2026-04-26 09:24 61.02961 -69.96446 39478 ft 494 kts 60°
2026-04-26 09:24 61.06552 -69.81572 39481 ft 497 kts 60°
2026-04-26 09:25 61.09104 -69.70938 39480 ft 498 kts 60°
2026-04-26 09:25 61.12167 -69.58100 39482 ft 498 kts 60°
2026-04-26 09:26 61.15220 -69.45229 39485 ft 498 kts 60°
2026-04-26 09:26 61.18256 -69.32355 39479 ft 497 kts 60°
2026-04-26 09:27 61.21277 -69.19465 39471 ft 497 kts 60°
2026-04-26 09:27 61.24289 -69.06541 39470 ft 499 kts 60°
2026-04-26 09:28 61.27304 -68.93526 39466 ft 500 kts 60°
2026-04-26 09:28 61.30309 -68.80472 39466 ft 501 kts 60°
2026-04-26 09:29 61.33304 -68.67382 39466 ft 501 kts 61°
2026-04-26 09:29 61.36286 -68.54267 39467 ft 501 kts 61°
2026-04-26 09:30 61.39253 -68.41141 39464 ft 499 kts 61°
2026-04-26 09:30 61.42199 -68.28020 39474 ft 500 kts 60°
2026-04-26 09:31 61.45148 -68.14819 39468 ft 502 kts 60°
2026-04-26 09:31 61.48090 -68.01563 39454 ft 503 kts 61°
2026-04-26 09:32 61.51019 -67.88276 39454 ft 503 kts 61°
2026-04-26 09:32 61.53916 -67.75051 39468 ft 503 kts 61°
2026-04-26 09:33 61.56821 -67.61706 39470 ft 503 kts 61°
2026-04-26 09:33 61.59714 -67.48329 39472 ft 503 kts 61°
2026-04-26 09:34 61.62602 -67.34901 39466 ft 505 kts 61°
2026-04-26 09:34 61.65480 -67.21424 39463 ft 505 kts 61°
2026-04-26 09:35 61.68347 -67.07910 39461 ft 505 kts 61°
2026-04-26 09:35 61.71209 -66.94389 39467 ft 505 kts 61°
2026-04-26 09:36 61.74150 -66.80940 39462 ft 505 kts 60°
2026-04-26 09:36 61.77100 -66.67501 39472 ft 505 kts 60°
2026-04-26 09:37 61.80037 -66.53972 39473 ft 507 kts 60°
2026-04-26 09:37 61.82950 -66.40407 39468 ft 506 kts 60°
2026-04-26 09:38 61.85845 -66.26824 39478 ft 506 kts 60°
2026-04-26 09:38 61.88726 -66.13219 39475 ft 506 kts 60°
2026-04-26 09:39 61.91595 -65.99588 39480 ft 506 kts 60°
2026-04-26 09:39 61.94452 -65.85919 39495 ft 507 kts 60°
2026-04-26 09:40 61.97303 -65.72194 39485 ft 508 kts 60°
2026-04-26 09:40 62.00146 -65.58419 39481 ft 509 kts 60°
2026-04-26 09:41 62.02973 -65.44621 39481 ft 507 kts 61°
2026-04-26 09:41 62.05758 -65.30937 39481 ft 507 kts 61°
2026-04-26 09:42 62.08548 -65.17140 39483 ft 507 kts 61°
2026-04-26 09:42 62.11326 -65.03306 39504 ft 507 kts 61°
2026-04-26 09:43 62.14096 -64.89426 39479 ft 509 kts 61°
2026-04-26 09:43 62.16858 -64.75481 39493 ft 509 kts 61°
2026-04-26 09:44 62.19609 -64.61494 39475 ft 510 kts 61°
2026-04-26 09:44 62.22343 -64.47496 39476 ft 509 kts 61°
2026-04-26 09:45 62.25061 -64.33483 39478 ft 509 kts 61°
2026-04-26 09:45 62.27766 -64.19445 39490 ft 509 kts 61°
2026-04-26 09:46 62.30456 -64.05386 39487 ft 509 kts 62°
2026-04-26 09:46 62.33132 -63.91297 39470 ft 509 kts 62°
2026-04-26 09:47 62.35796 -63.77169 39479 ft 509 kts 62°
2026-04-26 09:47 62.38446 -63.63020 39467 ft 509 kts 62°
2026-04-26 09:48 62.41081 -63.48843 39473 ft 509 kts 62°
2026-04-26 09:48 62.43685 -63.34737 39499 ft 509 kts 62°
2026-04-26 09:49 62.46296 -63.20488 39473 ft 511 kts 62°
2026-04-26 09:49 62.48857 -63.06116 39467 ft 515 kts 66°
2026-04-26 09:50 62.50091 -62.90662 39464 ft 528 kts 81°
2026-04-26 09:50 62.50363 -62.74750 39462 ft 531 kts 84°
2026-04-26 09:51 62.50461 -62.58757 39458 ft 531 kts 84°
2026-04-26 09:51 62.50544 -62.42776 39452 ft 530 kts 84°
2026-04-26 09:52 62.50636 -62.26857 39456 ft 528 kts 84°
2026-04-26 09:52 62.50761 -62.03014 39461 ft 530 kts 84°
2026-04-26 09:53 62.50825 -61.86979 39441 ft 534 kts 84°
2026-04-26 09:53 62.50866 -61.70897 39444 ft 535 kts 84°
2026-04-26 09:54 62.50887 -61.54826 39442 ft 533 kts 85°
2026-04-26 09:54 62.50890 -61.38795 39435 ft 533 kts 85°
2026-04-26 09:55 62.50876 -61.22761 39437 ft 533 kts 85°
2026-04-26 09:55 62.50844 -61.06721 39425 ft 533 kts 85°
2026-04-26 09:56 62.50793 -60.90681 39425 ft 533 kts 85°
2026-04-26 09:56 62.50723 -60.74641 39418 ft 533 kts 85°
2026-04-26 09:57 62.50635 -60.58621 39420 ft 532 kts 85°
2026-04-26 09:57 62.50530 -60.42542 39413 ft 536 kts 85°
2026-04-26 09:58 62.50406 -60.26380 39411 ft 538 kts 85°
2026-04-26 09:58 62.50262 -60.10292 39400 ft 538 kts 86°
2026-04-26 09:59 62.50125 -59.96732 39399 ft 538 kts 86°
2026-04-26 09:59 62.49915 -59.77948 39387 ft 537 kts 86°
2026-04-26 10:00 62.49715 -59.61803 39390 ft 537 kts 86°
2026-04-26 10:00 62.49497 -59.45658 39379 ft 537 kts 86°
2026-04-26 10:01 62.49259 -59.29503 39374 ft 537 kts 86°
2026-04-26 10:01 62.49003 -59.13358 39364 ft 537 kts 86°
2026-04-26 10:02 62.48728 -58.97209 39376 ft 538 kts 87°
2026-04-26 10:02 62.48435 -58.80973 39360 ft 542 kts 87°
2026-04-26 10:03 62.48120 -58.64682 39357 ft 542 kts 87°
2026-04-26 10:03 62.47785 -58.48388 39347 ft 542 kts 87°
2026-04-26 10:04 62.47431 -58.32100 39346 ft 543 kts 88°
2026-04-26 10:04 62.47058 -58.15804 39330 ft 543 kts 88°
2026-04-26 10:05 62.46667 -57.99515 39327 ft 543 kts 88°
2026-04-26 10:05 62.46215 -57.83222 39314 ft 543 kts 89°
2026-04-26 10:06 62.45696 -57.66925 39312 ft 544 kts 89°
2026-04-26 10:06 62.45163 -57.50633 39350 ft 544 kts 89°
2026-04-26 10:07 62.44620 -57.34331 39293 ft 545 kts 89°
2026-04-26 10:07 62.44061 -57.17996 39279 ft 546 kts 89°
2026-04-26 10:08 62.43482 -57.01653 39279 ft 546 kts 89°
2026-04-26 10:08 62.42887 -56.85427 39262 ft 546 kts 89°
2026-04-26 10:09 62.42371 -56.71747 39260 ft 546 kts 90°
2026-04-26 10:09 62.41632 -56.52777 39243 ft 545 kts 90°
2026-04-26 10:10 62.40976 -56.36480 39246 ft 545 kts 90°
2026-04-26 10:10 62.40302 -56.20191 39222 ft 545 kts 90°
2026-04-26 10:11 62.39609 -56.03905 39225 ft 546 kts 90°
2026-04-26 10:11 62.38896 -55.87606 39204 ft 546 kts 91°
2026-04-26 10:12 62.38164 -55.71336 39209 ft 545 kts 91°
2026-04-26 10:12 62.37541 -55.57819 39197 ft 545 kts 91°
2026-04-26 10:13 62.36775 -55.41574 39187 ft 545 kts 91°
2026-04-26 10:13 62.35990 -55.25341 39181 ft 545 kts 91°
2026-04-26 10:14 62.35186 -55.09104 39175 ft 545 kts 92°
2026-04-26 10:14 62.34365 -54.92898 39166 ft 544 kts 92°
2026-04-26 10:15 62.33526 -54.76747 39154 ft 543 kts 92°
2026-04-26 10:15 62.32669 -54.60602 39154 ft 543 kts 92°
2026-04-26 10:16 62.31794 -54.44467 39140 ft 543 kts 92°
2026-04-26 10:16 62.30901 -54.28358 39132 ft 543 kts 93°
2026-04-26 10:17 62.29987 -54.12231 39116 ft 543 kts 94°
2026-04-26 10:17 62.29056 -53.96149 39116 ft 542 kts 94°
2026-04-26 10:18 62.28107 -53.80070 39102 ft 542 kts 94°
2026-04-26 10:18 62.27140 -53.64014 39091 ft 542 kts 94°
2026-04-26 10:19 62.26153 -53.47952 39072 ft 543 kts 94°
2026-04-26 10:19 62.25149 -53.31906 39072 ft 542 kts 94°
2026-04-26 10:20 62.24127 -53.15897 39050 ft 542 kts 95°
2026-04-26 10:20 62.23085 -52.99880 39050 ft 542 kts 95°
2026-04-26 10:21 62.22027 -52.83885 39052 ft 542 kts 95°
2026-04-26 10:21 62.20950 -52.67914 39034 ft 541 kts 95°
2026-04-26 10:22 62.19856 -52.51971 39004 ft 540 kts 96°
2026-04-26 10:22 62.18746 -52.36083 39006 ft 539 kts 96°
2026-04-26 10:23 62.17620 -52.20213 38986 ft 539 kts 96°
2026-04-26 10:23 62.16475 -52.04353 38984 ft 539 kts 96°
2026-04-26 10:24 62.15321 -51.88621 38956 ft 539 kts 96°
2026-04-26 10:24 62.14140 -51.72789 38954 ft 538 kts 96°
2026-04-26 10:25 62.12943 -51.56997 38939 ft 538 kts 97°
2026-04-26 10:25 62.11730 -51.41233 38939 ft 538 kts 97°
2026-04-26 10:26 62.10498 -51.25472 38909 ft 537 kts 97°
2026-04-26 10:26 62.09247 -51.09712 38907 ft 538 kts 97°
2026-04-26 10:27 62.07980 -50.93986 38881 ft 537 kts 98°
2026-04-26 10:27 62.06701 -50.78361 38885 ft 533 kts 98°
2026-04-26 10:28 62.05411 -50.62809 38878 ft 532 kts 98°
2026-04-26 10:28 62.04105 -50.47290 38879 ft 533 kts 98°
2026-04-26 10:29 62.02780 -50.31777 38861 ft 532 kts 98°
2026-04-26 10:29 62.01437 -50.16259 38863 ft 532 kts 99°
2026-04-26 10:30 62.00182 -50.00739 38837 ft 532 kts 93°
2026-04-26 10:30 61.99773 -49.85086 38837 ft 530 kts 89°
2026-04-26 10:31 61.99536 -49.69431 38817 ft 529 kts 89°
2026-04-26 10:31 61.99311 -49.53777 38808 ft 529 kts 89°
2026-04-26 10:32 61.99056 -49.38106 38807 ft 529 kts 89°
2026-04-26 10:32 61.98771 -49.22473 38795 ft 527 kts 90°
2026-04-26 10:33 61.98470 -49.06977 38800 ft 523 kts 90°
2026-04-26 10:33 61.98152 -48.91529 38793 ft 523 kts 90°
2026-04-26 10:34 61.97818 -48.76094 38803 ft 523 kts 91°
2026-04-26 10:34 61.97472 -48.60760 38792 ft 523 kts 91°
2026-04-26 10:35 61.97105 -48.45329 38781 ft 523 kts 91°
2026-04-26 10:35 61.96720 -48.29894 38782 ft 522 kts 92°
2026-04-26 10:36 61.96317 -48.14488 38766 ft 522 kts 92°
2026-04-26 10:36 61.95898 -47.99080 38766 ft 522 kts 92°
2026-04-26 10:37 61.95461 -47.83691 38755 ft 522 kts 92°
2026-04-26 10:37 61.95008 -47.68302 38747 ft 522 kts 92°
2026-04-26 10:38 61.94538 -47.52916 38760 ft 522 kts 93°
2026-04-26 10:38 61.94050 -47.37506 38734 ft 523 kts 94°
2026-04-26 10:39 61.93543 -47.22076 38734 ft 524 kts 94°
2026-04-26 10:39 61.93019 -47.06656 38727 ft 524 kts 94°
2026-04-26 10:40 61.92477 -46.91239 38729 ft 524 kts 94°
2026-04-26 10:40 61.91920 -46.75844 38716 ft 523 kts 94°
2026-04-26 10:41 61.91344 -46.60433 38720 ft 524 kts 94°
2026-04-26 10:41 61.90752 -46.45049 38718 ft 522 kts 95°
2026-04-26 10:42 61.90145 -46.29721 38716 ft 522 kts 95°
2026-04-26 10:42 61.89520 -46.14381 38710 ft 522 kts 95°
2026-04-26 10:43 61.88878 -45.99052 38710 ft 522 kts 95°
2026-04-26 10:43 61.88218 -45.83718 38709 ft 522 kts 95°
2026-04-26 10:44 61.87542 -45.68392 38688 ft 522 kts 96°
2026-04-26 10:44 61.86850 -45.53104 38707 ft 520 kts 96°
2026-04-26 10:45 61.86142 -45.37857 38708 ft 520 kts 96°
2026-04-26 10:45 61.85418 -45.22614 38717 ft 520 kts 96°
2026-04-26 10:46 61.84675 -45.07356 38707 ft 522 kts 96°
2026-04-26 10:46 61.83919 -44.92175 38694 ft 522 kts 96°
2026-04-26 10:47 61.83141 -44.76888 38679 ft 522 kts 96°
2026-04-26 10:47 61.82347 -44.61636 38694 ft 521 kts 97°
2026-04-26 10:48 61.81538 -44.46414 38691 ft 521 kts 97°
2026-04-26 10:48 61.80711 -44.31201 38691 ft 520 kts 97°
2026-04-26 10:49 61.79868 -44.16004 38691 ft 521 kts 97°
2026-04-26 10:49 61.79009 -44.00816 38709 ft 519 kts 97°
2026-04-26 10:50 61.78278 -43.88134 38706 ft 519 kts 97°
2026-04-26 10:50 61.77251 -43.70639 38726 ft 513 kts 98°
2026-04-26 10:51 61.75899 -43.48223 38790 ft 513 kts 98°
2026-04-26 10:52 61.74979 -43.33311 38792 ft 513 kts 98°
2026-04-26 10:52 61.74043 -43.18396 38809 ft 512 kts 98°
2026-04-26 10:53 61.73091 -43.03500 38816 ft 512 kts 98°
2026-04-26 10:53 61.72122 -42.88602 38814 ft 513 kts 99°
2026-04-26 10:54 61.70638 -42.66264 38822 ft 513 kts 99°
2026-04-26 10:54 61.69627 -42.51374 38824 ft 513 kts 99°
2026-04-26 10:55 61.68602 -42.36507 38815 ft 513 kts 99°
2026-04-26 10:55 61.67737 -42.24154 38815 ft 513 kts 99°
2026-04-26 10:56 61.66501 -42.06788 38806 ft 513 kts 99°
2026-04-26 10:56 61.65423 -41.91894 38810 ft 516 kts 100°
2026-04-26 10:57 61.64325 -41.76956 38807 ft 516 kts 100°
2026-04-26 10:57 61.63403 -41.64582 38803 ft 514 kts 100°
2026-04-26 10:58 61.62281 -41.49745 38804 ft 514 kts 100°
2026-04-26 10:58 61.61142 -41.34911 38787 ft 514 kts 101°
2026-04-26 10:59 61.59988 -41.20095 38788 ft 514 kts 101°
2026-04-26 10:59 61.58818 -41.05287 38787 ft 514 kts 101°
2026-04-26 11:00 61.57632 -40.90488 38773 ft 514 kts 101°
2026-04-26 11:00 61.56430 -40.75699 38774 ft 514 kts 101°
2026-04-26 11:01 61.55212 -40.60932 38764 ft 514 kts 101°
2026-04-26 11:01 61.53988 -40.46283 38760 ft 513 kts 101°
2026-04-26 11:02 61.52739 -40.31552 38745 ft 513 kts 102°
2026-04-26 11:02 61.51479 -40.16874 38760 ft 511 kts 102°
2026-04-26 11:03 61.50205 -40.02229 38757 ft 511 kts 102°
2026-04-26 11:03 61.48804 -39.87665 38756 ft 510 kts 104°
2026-04-26 11:04 61.47179 -39.73227 38757 ft 510 kts 105°
2026-04-26 11:04 61.45537 -39.58795 38763 ft 510 kts 105°
2026-04-26 11:05 61.43917 -39.44369 38745 ft 510 kts 105°
2026-04-26 11:05 61.42299 -39.29957 38755 ft 509 kts 105°
2026-04-26 11:06 61.40671 -39.15578 38752 ft 509 kts 105°
2026-04-26 11:06 61.39026 -39.01217 38752 ft 509 kts 105°
2026-04-26 11:07 61.37365 -38.86871 38752 ft 509 kts 105°
2026-04-26 11:07 61.35688 -38.72536 38753 ft 509 kts 106°
2026-04-26 11:08 61.33999 -38.58235 38748 ft 509 kts 106°
2026-04-26 11:08 61.32294 -38.43948 38753 ft 508 kts 106°
2026-04-26 11:09 61.30576 -38.29686 38752 ft 508 kts 106°
2026-04-26 11:09 61.28841 -38.15435 38753 ft 508 kts 107°
2026-04-26 11:10 61.27105 -38.01302 38752 ft 508 kts 107°
2026-04-26 11:10 61.25341 -37.87077 38752 ft 508 kts 107°
2026-04-26 11:11 61.23563 -37.72884 38748 ft 508 kts 107°
2026-04-26 11:11 61.21770 -37.58697 38749 ft 508 kts 107°
2026-04-26 11:12 61.19964 -37.44540 38752 ft 508 kts 107°
2026-04-26 11:12 61.18143 -37.30402 38752 ft 508 kts 107°
2026-04-26 11:13 61.16307 -37.16282 38739 ft 507 kts 108°
2026-04-26 11:13 61.14457 -37.02179 38741 ft 508 kts 108°
2026-04-26 11:14 61.12592 -36.88090 38747 ft 508 kts 108°
2026-04-26 11:14 61.10713 -36.74018 38745 ft 508 kts 108°
2026-04-26 11:15 61.08818 -36.59956 38748 ft 508 kts 108°
2026-04-26 11:15 61.06909 -36.45920 38746 ft 508 kts 108°
2026-04-26 11:16 61.04985 -36.31892 38752 ft 508 kts 108°
2026-04-26 11:16 61.03047 -36.17889 38729 ft 507 kts 109°
2026-04-26 11:17 61.01095 -36.03905 38752 ft 507 kts 109°
2026-04-26 11:17 60.99142 -35.90030 38752 ft 508 kts 109°
2026-04-26 11:18 60.97160 -35.76074 38755 ft 507 kts 109°
2026-04-26 11:18 60.95167 -35.62151 38754 ft 507 kts 109°
2026-04-26 11:19 60.93157 -35.48235 38754 ft 507 kts 109°
2026-04-26 11:19 60.91135 -35.34347 38749 ft 507 kts 110°
2026-04-26 11:20 60.89430 -35.22730 38757 ft 507 kts 110°
2026-04-26 11:20 60.87049 -35.06639 38763 ft 507 kts 110°
2026-04-26 11:21 60.84986 -34.92819 38763 ft 507 kts 110°
2026-04-26 11:21 60.82907 -34.79008 38763 ft 507 kts 110°
2026-04-26 11:22 60.80814 -34.65207 38769 ft 507 kts 110°
2026-04-26 11:22 60.78708 -34.51437 38766 ft 507 kts 111°
2026-04-26 11:23 60.76586 -34.37672 38771 ft 507 kts 111°
2026-04-26 11:23 60.74452 -34.23942 38771 ft 507 kts 111°
2026-04-26 11:24 60.72306 -34.10242 38779 ft 506 kts 111°
2026-04-26 11:24 60.70160 -33.96647 38779 ft 506 kts 111°
2026-04-26 11:25 60.67987 -33.82983 38776 ft 507 kts 111°
2026-04-26 11:25 60.65796 -33.69319 38784 ft 507 kts 111°
2026-04-26 11:26 60.63591 -33.55669 38785 ft 507 kts 111°
2026-04-26 11:26 60.61374 -33.42051 38785 ft 507 kts 112°
2026-04-26 11:27 60.59142 -33.28444 38782 ft 507 kts 112°
2026-04-26 11:27 60.56898 -33.14861 38790 ft 507 kts 112°
2026-04-26 11:28 60.54639 -33.01298 38791 ft 507 kts 112°
2026-04-26 11:28 60.52366 -32.87750 38796 ft 507 kts 112°
2026-04-26 11:29 60.50080 -32.74225 38795 ft 507 kts 112°
2026-04-26 11:29 60.47778 -32.60708 38796 ft 507 kts 112°
2026-04-26 11:30 60.45855 -32.49489 38798 ft 507 kts 112°
2026-04-26 11:30 60.43150 -32.33821 38817 ft 507 kts 112°
2026-04-26 11:31 60.40807 -32.20356 38808 ft 507 kts 113°
2026-04-26 11:31 60.38451 -32.06913 38812 ft 507 kts 113°
2026-04-26 11:32 60.36081 -31.93494 38816 ft 507 kts 113°
2026-04-26 11:32 60.33700 -31.80103 38815 ft 507 kts 113°
2026-04-26 11:33 60.31301 -31.66706 38817 ft 508 kts 113°
2026-04-26 11:33 60.28888 -31.53330 38825 ft 508 kts 113°
2026-04-26 11:34 60.26461 -31.39963 38822 ft 508 kts 114°
2026-04-26 11:34 60.24019 -31.26609 38831 ft 508 kts 114°
2026-04-26 11:35 60.21564 -31.13280 38834 ft 508 kts 114°
2026-04-26 11:35 60.19515 -31.02223 38843 ft 508 kts 114°
2026-04-26 11:36 60.16616 -30.86694 38842 ft 508 kts 114°
2026-04-26 11:36 60.14121 -30.73420 38826 ft 508 kts 114°
2026-04-26 11:37 60.11628 -30.60254 38851 ft 509 kts 114°
2026-04-26 11:37 60.09102 -30.47000 38851 ft 509 kts 114°
2026-04-26 11:38 60.06546 -30.33677 38856 ft 509 kts 114°
2026-04-26 11:38 60.03992 -30.20460 38856 ft 509 kts 115°
2026-04-26 11:39 60.01443 -30.07350 38862 ft 509 kts 115°
2026-04-26 11:39 59.98899 -29.94038 38857 ft 511 kts 112°
2026-04-26 11:40 59.96825 -29.80447 38874 ft 513 kts 109°
2026-04-26 11:40 59.94851 -29.66764 38872 ft 513 kts 109°
2026-04-26 11:42 59.86378 -29.12454 38874 ft 514 kts 110°
2026-04-26 11:43 59.84220 -28.99002 38886 ft 514 kts 111°
2026-04-26 11:43 59.82034 -28.85462 38894 ft 514 kts 111°
2026-04-26 11:44 59.79834 -28.71941 38895 ft 514 kts 111°
2026-04-26 11:44 59.77619 -28.58432 38894 ft 515 kts 111°
2026-04-26 11:45 59.75387 -28.44924 38903 ft 515 kts 111°
2026-04-26 11:45 59.73140 -28.31431 38911 ft 516 kts 111°
2026-04-26 11:46 59.70877 -28.17940 38915 ft 516 kts 111°
2026-04-26 11:46 59.68986 -28.06737 38900 ft 516 kts 111°
2026-04-26 11:47 59.66696 -27.93272 38901 ft 516 kts 111°
2026-04-26 11:47 59.64392 -27.79816 38922 ft 516 kts 111°
2026-04-26 11:48 59.62076 -27.66394 38925 ft 516 kts 112°
2026-04-26 11:48 59.59745 -27.52983 38917 ft 516 kts 111°
2026-04-26 11:49 59.57398 -27.39578 38928 ft 517 kts 111°
2026-04-26 11:49 59.55035 -27.26177 38929 ft 517 kts 112°
2026-04-26 11:50 59.52658 -27.12794 38933 ft 517 kts 112°
2026-04-26 11:50 59.50268 -26.99429 38933 ft 517 kts 112°
2026-04-26 11:51 59.47862 -26.86075 38941 ft 518 kts 112°
2026-04-26 11:51 59.45458 -26.72826 38933 ft 518 kts 112°
2026-04-26 11:52 59.43017 -26.59470 38947 ft 520 kts 112°
2026-04-26 11:52 59.40562 -26.46124 38949 ft 520 kts 112°
2026-04-26 11:53 59.38094 -26.32802 38946 ft 520 kts 112°
2026-04-26 11:54 59.34363 -26.12838 38957 ft 520 kts 112°
2026-04-26 11:54 59.31861 -25.99562 38955 ft 520 kts 112°
2026-04-26 11:55 59.29341 -25.86290 38953 ft 521 kts 112°
2026-04-26 11:55 59.26802 -25.73003 38961 ft 521 kts 112°
2026-04-26 11:56 59.24251 -25.59741 38963 ft 522 kts 113°
2026-04-26 11:56 59.21685 -25.46496 38966 ft 521 kts 113°
2026-04-26 11:57 59.19106 -25.33270 38964 ft 521 kts 113°
2026-04-26 11:57 59.16512 -25.20059 38969 ft 521 kts 113°
2026-04-26 11:58 59.13906 -25.06874 38971 ft 521 kts 113°
2026-04-26 11:58 59.11286 -24.93704 38974 ft 522 kts 113°
2026-04-26 11:59 59.08650 -24.80543 38977 ft 522 kts 114°
2026-04-26 11:59 59.06001 -24.67404 38980 ft 522 kts 114°
2026-04-26 12:00 59.03340 -24.54290 38978 ft 522 kts 114°
2026-04-26 12:00 59.00663 -24.41186 38984 ft 522 kts 114°
2026-04-26 12:01 58.97972 -24.28099 38988 ft 523 kts 114°
2026-04-26 12:01 58.95285 -24.15110 38990 ft 523 kts 114°
2026-04-26 12:02 58.92562 -24.02030 38992 ft 524 kts 114°
2026-04-26 12:02 58.89824 -23.88967 38994 ft 524 kts 114°
2026-04-26 12:03 58.87072 -23.75917 39002 ft 524 kts 114°
2026-04-26 12:03 58.84306 -23.62891 38995 ft 525 kts 114°
2026-04-26 12:04 58.81525 -23.49869 38999 ft 525 kts 114°
2026-04-26 12:04 58.78730 -23.36864 39016 ft 525 kts 114°
2026-04-26 12:05 58.75922 -23.23886 39013 ft 525 kts 115°
2026-04-26 12:05 58.73100 -23.10918 39013 ft 525 kts 115°
2026-04-26 12:06 58.70262 -22.97960 39011 ft 525 kts 115°
2026-04-26 12:06 58.67413 -22.85036 39024 ft 526 kts 115°
2026-04-26 12:07 58.64546 -22.72107 39010 ft 526 kts 115°
2026-04-26 12:07 58.61665 -22.59196 39027 ft 526 kts 115°
2026-04-26 12:08 58.58772 -22.46309 39028 ft 526 kts 115°
2026-04-26 12:08 58.55867 -22.33445 39037 ft 525 kts 115°
2026-04-26 12:09 58.52954 -22.20627 39010 ft 525 kts 115°
2026-04-26 12:09 58.50025 -22.07816 39030 ft 526 kts 115°
2026-04-26 12:10 58.47081 -21.95012 39037 ft 526 kts 115°
2026-04-26 12:10 58.44120 -21.82215 39037 ft 526 kts 115°
2026-04-26 12:11 58.41149 -21.69451 39038 ft 526 kts 116°
2026-04-26 12:11 58.38186 -21.56798 39043 ft 526 kts 116°
2026-04-26 12:12 58.35196 -21.44104 39040 ft 525 kts 116°
2026-04-26 12:12 58.32190 -21.31414 39048 ft 526 kts 116°
2026-04-26 12:13 58.29172 -21.18750 39054 ft 526 kts 116°
2026-04-26 12:13 58.26141 -21.06107 39053 ft 526 kts 116°
2026-04-26 12:14 58.23096 -20.93476 39053 ft 526 kts 116°
2026-04-26 12:14 58.20041 -20.80876 39059 ft 526 kts 116°
2026-04-26 12:15 58.16972 -20.68294 39060 ft 526 kts 116°
2026-04-26 12:15 58.13892 -20.55738 39067 ft 526 kts 116°
2026-04-26 12:16 58.10798 -20.43199 39062 ft 526 kts 116°
2026-04-26 12:16 58.07694 -20.30691 39072 ft 526 kts 117°
2026-04-26 12:17 58.04577 -20.18200 39069 ft 526 kts 117°
2026-04-26 12:17 58.01448 -20.05732 39069 ft 526 kts 117°
2026-04-26 12:18 57.98758 -19.92897 39082 ft 527 kts 110°
2026-04-26 12:18 57.96423 -19.79895 39078 ft 527 kts 109°
2026-04-26 12:19 57.94117 -19.66801 39079 ft 527 kts 109°
2026-04-26 12:19 57.91792 -19.53724 39083 ft 527 kts 110°
2026-04-26 12:20 57.89442 -19.40663 39085 ft 527 kts 110°
2026-04-26 12:20 57.87075 -19.27632 39086 ft 527 kts 110°
2026-04-26 12:21 57.84694 -19.14612 39079 ft 528 kts 110°
2026-04-26 12:21 57.82296 -19.01589 39092 ft 528 kts 110°
2026-04-26 12:22 57.79883 -18.88571 39093 ft 528 kts 110°
2026-04-26 12:22 57.77458 -18.75574 39092 ft 528 kts 110°
2026-04-26 12:23 57.75020 -18.62597 39095 ft 528 kts 110°
2026-04-26 12:23 57.72566 -18.49629 39097 ft 528 kts 110°
2026-04-26 12:24 57.70101 -18.36688 39097 ft 527 kts 111°
2026-04-26 12:24 57.67642 -18.23864 39102 ft 528 kts 111°
2026-04-26 12:25 57.63903 -18.04518 39099 ft 528 kts 111°
2026-04-26 12:25 57.61392 -17.91636 39100 ft 528 kts 111°
2026-04-26 12:26 57.58868 -17.78773 39102 ft 528 kts 111°
2026-04-26 12:26 57.56333 -17.65939 39107 ft 528 kts 111°
2026-04-26 12:27 57.53785 -17.53122 39108 ft 528 kts 111°
2026-04-26 12:27 57.51224 -17.40324 39108 ft 528 kts 112°
2026-04-26 12:28 57.48651 -17.27550 39110 ft 528 kts 112°
2026-04-26 12:28 57.46065 -17.14788 39110 ft 528 kts 112°
2026-04-26 12:29 57.43467 -17.02052 39119 ft 528 kts 112°
2026-04-26 12:30 57.39547 -16.82989 39115 ft 526 kts 112°
2026-04-26 12:30 57.36924 -16.70328 39116 ft 526 kts 112°
2026-04-26 12:31 57.32959 -16.51345 39122 ft 527 kts 112°
2026-04-26 12:31 57.30300 -16.38712 39118 ft 527 kts 112°
2026-04-26 12:32 57.27645 -16.26175 39130 ft 527 kts 113°
2026-04-26 12:33 57.23618 -16.07307 39125 ft 526 kts 113°
2026-04-26 12:33 57.20901 -15.94674 39132 ft 526 kts 113°
2026-04-26 12:34 57.18207 -15.82224 39125 ft 527 kts 113°
2026-04-26 12:34 57.15479 -15.69694 39138 ft 527 kts 113°
2026-04-26 12:35 57.12736 -15.57168 39139 ft 527 kts 113°
2026-04-26 12:35 57.09984 -15.44677 39135 ft 526 kts 114°
2026-04-26 12:36 57.07227 -15.32240 39142 ft 525 kts 114°
2026-04-26 12:36 57.04457 -15.19817 39145 ft 525 kts 114°
2026-04-26 12:37 57.02126 -15.09420 39145 ft 525 kts 114°
2026-04-26 12:37 56.99992 -14.96701 39151 ft 528 kts 98°
2026-04-26 12:38 56.99148 -14.83320 39157 ft 529 kts 96°
2026-04-26 12:38 56.98530 -14.69892 39148 ft 528 kts 95°
2026-04-26 12:39 56.97919 -14.56497 39155 ft 527 kts 95°
2026-04-26 12:39 56.97265 -14.43100 39156 ft 527 kts 96°
2026-04-26 12:40 56.96583 -14.29717 39158 ft 527 kts 96°
2026-04-26 12:40 56.95883 -14.16347 39165 ft 527 kts 96°
2026-04-26 12:41 56.95005 -14.03022 39162 ft 526 kts 103°
2026-04-26 12:41 56.92572 -13.90474 39160 ft 523 kts 116°
2026-04-26 12:42 56.89503 -13.78414 39159 ft 523 kts 117°
2026-04-26 12:42 56.86331 -13.66457 39166 ft 523 kts 118°
2026-04-26 12:43 56.83164 -13.54515 39172 ft 523 kts 118°
2026-04-26 12:43 56.80008 -13.42582 39171 ft 522 kts 118°
2026-04-26 12:44 56.76848 -13.30660 39173 ft 522 kts 118°
2026-04-26 12:44 56.73682 -13.18773 39176 ft 522 kts 118°
2026-04-26 12:45 56.70502 -13.06905 39181 ft 521 kts 118°
2026-04-26 12:45 56.67309 -12.95051 39179 ft 522 kts 118°
2026-04-26 12:46 56.64128 -12.83302 39185 ft 521 kts 118°
2026-04-26 12:46 56.60920 -12.71516 39189 ft 520 kts 118°
2026-04-26 12:47 56.57704 -12.59759 39190 ft 520 kts 119°
2026-04-26 12:47 56.54478 -12.48028 39192 ft 520 kts 119°
2026-04-26 12:48 56.51240 -12.36314 39197 ft 520 kts 119°
2026-04-26 12:48 56.47991 -12.24622 39201 ft 520 kts 119°
2026-04-26 12:49 56.44731 -12.12946 39199 ft 520 kts 119°
2026-04-26 12:49 56.41463 -12.01300 39203 ft 520 kts 119°
2026-04-26 12:50 56.38180 -11.89663 39203 ft 520 kts 119°
2026-04-26 12:50 56.34888 -11.78050 39205 ft 520 kts 119°
2026-04-26 12:51 56.31585 -11.66458 39208 ft 520 kts 119°
2026-04-26 12:51 56.28273 -11.54892 39205 ft 520 kts 120°
2026-04-26 12:52 56.24956 -11.43363 39209 ft 518 kts 120°
2026-04-26 12:52 56.21639 -11.31892 39215 ft 517 kts 120°
2026-04-26 12:53 56.18310 -11.20440 39222 ft 517 kts 120°
2026-04-26 12:53 56.14972 -11.09010 39223 ft 517 kts 120°
2026-04-26 12:54 56.11621 -10.97593 39229 ft 517 kts 120°
2026-04-26 12:54 56.08261 -10.86199 39214 ft 517 kts 120°
2026-04-26 12:55 56.04928 -10.74948 39232 ft 514 kts 121°
2026-04-26 12:55 56.01554 -10.63617 39235 ft 512 kts 121°
2026-04-26 12:56 55.98216 -10.52464 39235 ft 512 kts 121°
2026-04-26 12:56 55.94846 -10.41256 39237 ft 512 kts 121°
2026-04-26 12:57 55.91467 -10.30069 39238 ft 512 kts 121°
2026-04-26 12:57 55.88076 -10.18897 39236 ft 512 kts 121°
2026-04-26 12:58 55.82968 -10.02167 39245 ft 514 kts 121°
2026-04-26 12:58 55.79490 -9.91073 39248 ft 513 kts 123°
2026-04-26 12:59 55.75890 -9.80133 39248 ft 513 kts 123°
2026-04-26 12:59 55.72278 -9.69222 39249 ft 513 kts 123°
2026-04-26 13:00 55.68674 -9.58305 39259 ft 513 kts 123°
2026-04-26 13:00 55.65074 -9.47407 39252 ft 512 kts 123°
2026-04-26 13:01 55.61469 -9.36537 39262 ft 511 kts 123°
2026-04-26 13:01 55.57860 -9.25710 39261 ft 511 kts 123°
2026-04-26 13:02 55.54239 -9.14897 39265 ft 511 kts 123°
2026-04-26 13:02 55.50611 -9.04113 39265 ft 511 kts 124°
2026-04-26 13:03 55.46972 -8.93342 39265 ft 511 kts 124°
2026-04-26 13:03 55.43332 -8.82614 39271 ft 509 kts 124°
2026-04-26 13:04 55.39697 -8.71949 39271 ft 508 kts 124°
2026-04-26 13:04 55.36056 -8.61315 39274 ft 507 kts 124°
2026-04-26 13:05 55.32405 -8.50701 39273 ft 507 kts 124°
2026-04-26 13:05 55.28746 -8.40107 39279 ft 507 kts 124°
2026-04-26 13:06 55.25081 -8.29540 39282 ft 507 kts 124°
2026-04-26 13:06 55.21407 -8.18996 39280 ft 506 kts 124°
2026-04-26 13:07 55.17732 -8.08491 39279 ft 506 kts 125°
2026-04-26 13:07 55.14051 -7.98015 39276 ft 506 kts 125°
2026-04-26 13:08 55.10361 -7.87560 39272 ft 506 kts 125°
2026-04-26 13:08 55.06685 -7.77189 39267 ft 506 kts 125°
2026-04-26 13:09 55.02975 -7.66763 39256 ft 506 kts 125°
2026-04-26 13:09 54.99260 -7.56372 39257 ft 504 kts 125°
2026-04-26 13:10 54.95553 -7.46041 39263 ft 503 kts 125°
2026-04-26 13:10 54.91835 -7.35727 39264 ft 503 kts 125°
2026-04-26 13:11 54.88109 -7.25434 39263 ft 503 kts 125°
2026-04-26 13:11 54.84372 -7.15152 39262 ft 503 kts 125°
2026-04-26 13:12 54.80629 -7.04899 39246 ft 503 kts 125°
2026-04-26 13:12 54.76882 -6.94672 39254 ft 502 kts 126°
2026-04-26 13:13 54.73137 -6.84495 39257 ft 501 kts 126°
2026-04-26 13:13 54.69384 -6.74342 39257 ft 501 kts 126°
2026-04-26 13:14 54.65621 -6.64202 39257 ft 501 kts 126°
2026-04-26 13:14 54.61850 -6.54081 39262 ft 501 kts 126°
2026-04-26 13:15 54.58074 -6.43988 39239 ft 501 kts 126°
2026-04-26 13:15 54.54927 -6.35609 39265 ft 501 kts 126°
2026-04-26 13:16 54.50494 -6.23852 39264 ft 501 kts 126°
2026-04-26 13:16 54.46695 -6.13820 39266 ft 501 kts 126°
2026-04-26 13:17 54.40978 -5.98800 39265 ft 501 kts 126°
2026-04-26 13:18 54.35246 -5.83832 39255 ft 501 kts 127°
2026-04-26 13:19 54.29482 -5.68873 39273 ft 502 kts 127°
2026-04-26 13:19 54.26279 -5.60598 39273 ft 502 kts 127°
2026-04-26 13:20 54.21792 -5.49050 39273 ft 501 kts 127°
2026-04-26 13:20 54.18553 -5.40746 39274 ft 502 kts 127°
2026-04-26 13:21 54.14678 -5.30852 39274 ft 502 kts 127°
2026-04-26 13:21 54.10792 -5.20968 39276 ft 502 kts 127°
2026-04-26 13:22 54.06893 -5.11086 39274 ft 502 kts 127°
2026-04-26 13:22 54.02987 -5.01226 39276 ft 502 kts 127°
2026-04-26 13:23 53.99074 -4.91391 39275 ft 502 kts 127°
2026-04-26 13:23 53.95108 -4.81617 39279 ft 501 kts 129°
2026-04-26 13:24 53.90954 -4.72127 39274 ft 501 kts 130°
2026-04-26 13:24 53.86760 -4.62680 39279 ft 502 kts 130°
2026-04-26 13:25 53.82584 -4.53209 39281 ft 502 kts 130°
2026-04-26 13:25 53.78418 -4.43721 39277 ft 502 kts 130°
2026-04-26 13:26 53.74243 -4.34246 39282 ft 502 kts 130°
2026-04-26 13:26 53.70063 -4.24802 39289 ft 502 kts 130°
2026-04-26 13:27 53.65874 -4.15373 39266 ft 502 kts 130°
2026-04-26 13:27 53.61678 -4.05956 39280 ft 503 kts 130°
2026-04-26 13:28 53.57469 -3.96549 39275 ft 503 kts 130°
2026-04-26 13:28 53.53253 -3.87171 39278 ft 503 kts 130°
2026-04-26 13:29 53.49026 -3.77801 39273 ft 503 kts 130°
2026-04-26 13:29 53.44823 -3.68516 39277 ft 503 kts 130°
2026-04-26 13:30 53.40580 -3.59181 39280 ft 503 kts 130°
2026-04-26 13:30 53.36056 -3.50261 39275 ft 502 kts 135°
2026-04-26 13:31 53.31363 -3.41608 39275 ft 502 kts 135°
2026-04-26 13:31 53.26693 -3.32927 39269 ft 502 kts 135°
2026-04-26 13:32 53.22026 -3.24153 39269 ft 502 kts 135°
2026-04-26 13:32 53.17395 -3.15418 39260 ft 502 kts 135°
2026-04-26 13:33 53.12794 -3.06771 39262 ft 502 kts 135°
2026-04-26 13:33 53.08145 -2.98083 39266 ft 503 kts 135°
2026-04-26 13:34 53.03488 -2.89409 39269 ft 503 kts 135°
2026-04-26 13:34 52.98820 -2.80730 39291 ft 503 kts 135°
2026-04-26 13:35 52.94151 -2.72094 39292 ft 503 kts 135°
2026-04-26 13:35 52.89478 -2.63483 39292 ft 502 kts 135°
2026-04-26 13:36 52.84801 -2.54890 39293 ft 502 kts 135°
2026-04-26 13:36 52.79831 -2.46865 39293 ft 498 kts 147°
2026-04-26 13:37 52.74186 -2.40260 39295 ft 497 kts 149°
2026-04-26 13:37 52.68432 -2.33953 39319 ft 496 kts 150°
2026-04-26 13:38 52.62676 -2.27694 39321 ft 496 kts 150°
2026-04-26 13:38 52.56918 -2.21423 39318 ft 496 kts 150°
2026-04-26 13:39 52.51169 -2.15159 39314 ft 496 kts 150°
2026-04-26 13:39 52.45418 -2.08904 39311 ft 495 kts 149°
2026-04-26 13:40 52.39671 -2.02667 39306 ft 495 kts 149°
2026-04-26 13:40 52.33926 -1.96439 39300 ft 496 kts 149°
2026-04-26 13:41 52.28155 -1.90233 39286 ft 497 kts 150°
2026-04-26 13:41 52.22372 -1.84025 39303 ft 497 kts 149°
2026-04-26 13:42 52.16633 -1.77889 39304 ft 496 kts 150°
2026-04-26 13:42 52.10858 -1.71731 39302 ft 496 kts 150°
2026-04-26 13:43 52.05082 -1.65573 39303 ft 496 kts 149°
2026-04-26 13:43 51.99314 -1.59433 39289 ft 496 kts 150°
2026-04-26 13:44 51.93518 -1.53321 39291 ft 496 kts 150°
2026-04-26 13:44 51.87736 -1.47250 39293 ft 496 kts 150°
2026-04-26 13:45 51.81936 -1.41153 39291 ft 496 kts 150°
2026-04-26 13:45 51.76136 -1.35084 39292 ft 496 kts 150°
2026-04-26 13:46 51.70350 -1.29042 39292 ft 496 kts 150°
2026-04-26 13:46 51.64553 -1.23014 39292 ft 496 kts 150°
2026-04-26 13:47 51.58759 -1.17007 39293 ft 496 kts 150°
2026-04-26 13:47 51.52946 -1.10997 39294 ft 496 kts 150°
2026-04-26 13:48 51.47144 -1.05015 39293 ft 495 kts 150°
2026-04-26 13:48 51.41350 -0.99051 39293 ft 495 kts 150°
2026-04-26 13:49 51.35542 -0.93103 39292 ft 496 kts 150°
2026-04-26 13:49 51.29725 -0.87163 39291 ft 496 kts 150°
2026-04-26 13:50 51.23901 -0.81232 39292 ft 496 kts 150°
2026-04-26 13:50 51.18074 -0.75316 39293 ft 497 kts 150°
2026-04-26 13:51 51.12247 -0.69418 39293 ft 496 kts 150°
2026-04-26 13:51 51.06622 -0.63019 39295 ft 500 kts 139°
2026-04-26 13:52 51.02230 -0.54462 39295 ft 504 kts 125°
2026-04-26 13:52 50.98494 -0.45037 39295 ft 505 kts 123°
2026-04-26 13:53 50.94848 -0.35514 39294 ft 505 kts 123°
2026-04-26 13:53 50.91179 -0.26035 39293 ft 505 kts 123°
2026-04-26 13:54 50.87473 -0.16586 39283 ft 504 kts 123°
2026-04-26 13:54 50.83756 -0.07171 39294 ft 504 kts 123°
2026-04-26 13:55 50.78797 0.05334 39300 ft 505 kts 123°
2026-04-26 13:55 50.73596 0.15239 39303 ft 500 kts 140°
2026-04-26 13:56 50.70968 0.18841 39302 ft 500 kts 142°
2026-04-26 13:56 50.68312 0.22312 38913 ft 495 kts 143°
2026-04-26 13:56 50.65617 0.25742 37913 ft 499 kts 143°
2026-04-26 13:56 50.62898 0.29161 37053 ft 501 kts 144°
2026-04-26 13:57 50.60179 0.32579 36347 ft 499 kts 144°
2026-04-26 13:57 50.57504 0.35950 35676 ft 499 kts 144°
2026-04-26 13:57 50.54799 0.39374 34971 ft 499 kts 144°
2026-04-26 13:57 50.52089 0.42804 34147 ft 501 kts 144°
2026-04-26 13:58 50.49365 0.46248 33259 ft 503 kts 144°
2026-04-26 13:58 50.46641 0.49690 32406 ft 504 kts 144°
2026-04-26 13:58 50.43912 0.53143 31623 ft 503 kts 143°
2026-04-26 13:58 50.41198 0.56569 31022 ft 498 kts 143°
2026-04-26 13:59 50.38508 0.59958 30437 ft 494 kts 143°
2026-04-26 13:59 50.35841 0.63311 29788 ft 489 kts 143°
2026-04-26 13:59 50.33204 0.66628 29181 ft 484 kts 143°
2026-04-26 14:00 50.25447 0.76341 27429 ft 469 kts 144°
2026-04-26 14:00 50.22910 0.79506 26847 ft 464 kts 144°
2026-04-26 14:00 50.21248 0.81577 26476 ft 461 kts 144°
2026-04-26 14:01 50.17908 0.85735 25783 ft 454 kts 143°
2026-04-26 14:01 50.15476 0.88763 25641 ft 440 kts 144°
2026-04-26 14:01 50.13118 0.91690 25504 ft 426 kts 143°
2026-04-26 14:01 50.10830 0.94526 25347 ft 414 kts 143°
2026-04-26 14:02 50.08592 0.97294 24933 ft 410 kts 143°
2026-04-26 14:02 50.06338 1.00015 24413 ft 409 kts 147°
2026-04-26 14:02 50.03905 1.02222 23964 ft 404 kts 155°
2026-04-26 14:02 50.01386 1.04145 23475 ft 404 kts 156°
2026-04-26 14:03 49.99707 1.05399 23183 ft 403 kts 156°
2026-04-26 14:03 49.97192 1.07277 22753 ft 400 kts 156°
2026-04-26 14:03 49.94693 1.09147 22295 ft 397 kts 156°
2026-04-26 14:03 49.92221 1.10999 21895 ft 394 kts 156°
2026-04-26 14:04 49.89764 1.12839 21469 ft 391 kts 156°
2026-04-26 14:04 49.87324 1.14667 21059 ft 388 kts 156°
2026-04-26 14:04 49.84903 1.16478 20650 ft 385 kts 156°
2026-04-26 14:04 49.82498 1.18276 20240 ft 383 kts 156°
2026-04-26 14:05 49.80107 1.20062 19817 ft 380 kts 156°
2026-04-26 14:05 49.77738 1.21830 19405 ft 377 kts 156°
2026-04-26 14:05 49.75379 1.23588 19012 ft 374 kts 156°
2026-04-26 14:05 49.73041 1.25330 18628 ft 372 kts 156°
2026-04-26 14:06 49.70714 1.27060 18184 ft 370 kts 156°
2026-04-26 14:06 49.68404 1.28776 17781 ft 368 kts 156°
2026-04-26 14:06 49.66107 1.30481 17385 ft 365 kts 156°
2026-04-26 14:06 49.63824 1.32173 16994 ft 363 kts 156°
2026-04-26 14:07 49.61557 1.33853 16599 ft 360 kts 156°
2026-04-26 14:07 49.59301 1.35522 16201 ft 359 kts 156°
2026-04-26 14:07 49.57052 1.37184 15829 ft 358 kts 156°
2026-04-26 14:07 49.54817 1.38834 15440 ft 355 kts 156°
2026-04-26 14:08 49.52591 1.40478 15067 ft 354 kts 156°
2026-04-26 14:08 49.50381 1.42108 14696 ft 351 kts 156°
2026-04-26 14:08 49.48184 1.43723 14309 ft 349 kts 156°
2026-04-26 14:08 49.46000 1.45330 13923 ft 346 kts 155°
2026-04-26 14:09 49.43837 1.46920 13578 ft 342 kts 155°
2026-04-26 14:09 49.41730 1.48467 13386 ft 330 kts 155°
2026-04-26 14:09 49.39695 1.49958 13179 ft 318 kts 155°
2026-04-26 14:09 49.37722 1.51405 12863 ft 311 kts 155°
2026-04-26 14:10 49.35792 1.52820 12362 ft 304 kts 155°
2026-04-26 14:10 49.33901 1.54206 11988 ft 298 kts 155°
2026-04-26 14:10 49.32064 1.55676 11564 ft 298 kts 148°
2026-04-26 14:10 49.30579 1.57838 11210 ft 295 kts 123°
2026-04-26 14:11 49.29637 1.63830 10666 ft 296 kts 93°
2026-04-26 14:11 49.29517 1.66963 10396 ft 295 kts 93°
2026-04-26 14:11 49.29398 1.70093 10118 ft 293 kts 93°
2026-04-26 14:12 49.29091 1.73168 9835 ft 292 kts 108°
2026-04-26 14:12 49.28092 1.75836 9558 ft 289 kts 133°
2026-04-26 14:12 49.26472 1.77616 9286 ft 287 kts 153°
2026-04-26 14:12 49.24657 1.78885 9021 ft 287 kts 156°
2026-04-26 14:13 49.20995 1.81287 8484 ft 285 kts 156°
2026-04-26 14:13 49.19184 1.82491 8210 ft 283 kts 156°
2026-04-26 14:13 49.17383 1.83693 7962 ft 282 kts 156°
2026-04-26 14:14 49.15592 1.84893 7758 ft 280 kts 156°
2026-04-26 14:14 49.13801 1.86078 7508 ft 281 kts 156°
2026-04-26 14:14 49.12011 1.87258 7131 ft 279 kts 156°
2026-04-26 14:14 49.10238 1.88428 6767 ft 276 kts 156°
2026-04-26 14:15 49.08486 1.89586 6395 ft 273 kts 156°
2026-04-26 14:15 49.06785 1.90834 5969 ft 271 kts 146°
2026-04-26 14:15 49.05473 1.92829 5559 ft 269 kts 126°
2026-04-26 14:15 49.04438 1.95183 5206 ft 266 kts 122°
2026-04-26 14:16 49.03447 1.97580 4812 ft 266 kts 122°
2026-04-26 14:16 49.02463 1.99955 4430 ft 262 kts 121°
2026-04-26 14:16 49.01495 2.02251 4277 ft 253 kts 122°
2026-04-26 14:16 49.00569 2.04459 4124 ft 241 kts 120°
2026-04-26 14:17 49.00115 2.06828 3999 ft 228 kts 93°
2026-04-26 14:17 49.00123 2.09213 4002 ft 226 kts 85°
2026-04-26 14:17 49.00253 2.11599 4001 ft 227 kts 84°
2026-04-26 14:17 49.00386 2.13964 3992 ft 226 kts 84°
2026-04-26 14:18 49.00519 2.16352 4003 ft 226 kts 84°
2026-04-26 14:18 49.00654 2.18740 4000 ft 227 kts 85°
2026-04-26 14:18 49.00785 2.21128 3997 ft 223 kts 84°
2026-04-26 14:18 49.00909 2.23398 3993 ft 208 kts 84°
2026-04-26 14:19 49.01025 2.25569 3899 ft 204 kts 84°
2026-04-26 14:19 49.01137 2.27712 3657 ft 201 kts 84°
2026-04-26 14:19 49.01250 2.29817 3358 ft 198 kts 84°
2026-04-26 14:19 49.01365 2.31890 3059 ft 194 kts 84°
2026-04-26 14:20 49.01470 2.33876 2802 ft 181 kts 84°
2026-04-26 14:20 49.01570 2.35766 2577 ft 179 kts 84°
2026-04-26 14:20 49.01673 2.37633 2311 ft 170 kts 85°
2026-04-26 14:20 49.01763 2.39370 2124 ft 162 kts 83°
2026-04-26 14:21 49.01855 2.41044 1897 ft 154 kts 83°
2026-04-26 14:21 49.01940 2.42622 1688 ft 144 kts 84°
2026-04-26 14:21 49.02020 2.44131 1500 ft 142 kts 83°
2026-04-26 14:21 49.02100 2.45591 1311 ft 134 kts 81°
2026-04-26 14:22 49.02175 2.46978 1131 ft 133 kts 83°
2026-04-26 14:22 49.02250 2.48389 939 ft 134 kts 82°
2026-04-26 14:22 49.02332 2.49785 770 ft 131 kts 83°
2026-04-26 14:22 49.02402 2.51174 577 ft 132 kts 83°
2026-04-26 14:23 49.02482 2.52573 407 ft 133 kts 84°
2026-04-26 14:23 49.02552 2.53934 368 ft 112 kts 85°
2026-04-26 14:23 49.02598 2.54788 361 ft 50 kts 85°
2026-04-26 14:23 49.02605 2.55111 366 ft 25 kts 98°
2026-04-26 14:24 49.02554 2.55354 366 ft 24 kts 113°
2026-04-26 14:24 49.02499 2.55518 367 ft 11 kts 116°
2026-04-26 14:24 49.02451 2.55602 369 ft 11 kts 160°
2026-04-26 14:24 49.02411 2.55613 364 ft 0 kts 173°
2026-04-26 14:26 49.02395 2.55615 363 ft 7 kts 176°
2026-04-26 14:27 49.02320 2.55624 369 ft 13 kts 175°
2026-04-26 14:27 49.02213 2.55637 366 ft 17 kts 175°
2026-04-26 14:27 49.02085 2.55654 368 ft 20 kts 175°
2026-04-26 14:27 49.01949 2.55671 367 ft 16 kts 175°
2026-04-26 14:28 49.01890 2.55580 369 ft 14 kts 256°
2026-04-26 14:28 49.01878 2.55416 363 ft 17 kts 265°
2026-04-26 14:28 49.01869 2.55221 367 ft 19 kts 266°
2026-04-26 14:28 49.01860 2.55048 367 ft 16 kts 266°
2026-04-26 14:29 49.01839 2.54881 365 ft 14 kts 225°
2026-04-26 14:29 49.01743 2.54866 361 ft 15 kts 175°
2026-04-26 14:29 49.01626 2.54880 361 ft 18 kts 175°
2026-04-26 14:29 49.01489 2.54899 367 ft 21 kts 174°
2026-04-26 14:30 49.01338 2.54943 368 ft 23 kts 163°
2026-04-26 14:30 49.01174 2.55013 365 ft 25 kts 164°
2026-04-26 14:30 49.00996 2.55091 369 ft 28 kts 164°
2026-04-26 14:30 49.00812 2.55170 363 ft 26 kts 164°
2026-04-26 14:31 49.00632 2.55250 365 ft 28 kts 164°
2026-04-26 14:31 49.00439 2.55333 367 ft 29 kts 165°
2026-04-26 14:31 49.00262 2.55409 369 ft 24 kts 164°
2026-04-26 14:31 49.00104 2.55480 367 ft 24 kts 165°
2026-04-26 14:32 48.99945 2.55549 366 ft 23 kts 156°
2026-04-26 14:32 48.99837 2.55731 365 ft 25 kts 109°
2026-04-26 14:32 48.99801 2.55993 368 ft 26 kts 89°
2026-04-26 14:32 48.99814 2.56275 369 ft 27 kts 84°
2026-04-26 14:33 48.99829 2.56570 367 ft 29 kts 86°
2026-04-26 14:33 48.99847 2.56879 366 ft 30 kts 84°
2026-04-26 14:33 48.99863 2.57190 367 ft 29 kts 85°
2026-04-26 14:33 48.99879 2.57503 365 ft 30 kts 85°
2026-04-26 14:34 48.99895 2.57815 364 ft 30 kts 85°
2026-04-26 14:34 48.99911 2.58115 365 ft 28 kts 85°
2026-04-26 14:34 48.99928 2.58413 367 ft 28 kts 85°
2026-04-26 14:34 48.99945 2.58679 362 ft 20 kts 72°
2026-04-26 14:35 49.00030 2.58747 367 ft 3 kts 338°
2026-04-26 14:35 49.00034 2.58733 366 ft 1 kts 291°
2026-04-26 14:35 49.00031 2.58683 365 ft 10 kts 265°
2026-04-26 14:35 49.00023 2.58517 364 ft 20 kts 265°
2026-04-26 14:36 49.00039 2.58342 364 ft 16 kts 322°
2026-04-26 14:36 49.00154 2.58310 361 ft 18 kts 354°
2026-04-26 14:36 49.00278 2.58291 366 ft 10 kts 339°
2026-04-26 14:36 49.00283 2.58211 368 ft 8 kts 248°
2026-04-26 14:37 49.00263 2.58166 368 ft 2 kts 234°
2026-04-26 14:37 49.00260 2.58161 368 ft 0 kts 234°